Time,TemperatureF,DewpointF,PressureIn,WindDirection,WindDirectionDegrees,WindSpeedMPH,WindSpeedGustMPH,Humidity,HourlyPrecipIn,Conditions,Clouds,dailyrainin,SoftwareType,DateUTC
2013-04-23 00:03:00,47.3,30.6,30.39,East,90,0.0,0.0,52,0.00,,CLR,0.00,VWS V14.00,2013-04-23 07:03:00,
2013-04-23 00:08:00,47.1,30.4,30.39,ESE,112,0.0,0.0,52,0.00,,CLR,0.00,VWS V14.00,2013-04-23 07:08:00,
2013-04-23 00:09:00,47.1,30.4,30.39,ESE,112,0.0,0.0,52,0.00,,CLR,0.00,VWS V14.00,2013-04-23 07:09:00,
2013-04-23 00:13:00,46.8,30.5,30.39,SE,135,0.0,0.0,53,0.00,,CLR,0.00,VWS V14.00,2013-04-23 07:13:00,
2013-04-23 00:14:00,46.8,30.5,30.39,SE,135,0.0,0.0,53,0.00,,CLR,0.00,VWS V14.00,2013-04-23 07:14:00,
2013-04-23 00:18:00,46.6,30.4,30.39,ESE,112,0.0,0.0,53,0.00,,CLR,0.00,VWS V14.00,2013-04-23 07:18:00,
2013-04-23 00:19:00,46.6,29.9,30.39,ESE,112,0.0,0.0,52,0.00,,CLR,0.00,VWS V14.00,2013-04-23 07:19:00,
2013-04-23 00:23:00,46.8,30.1,30.39,SSE,158,0.0,0.0,52,0.00,,CLR,0.00,VWS V14.00,2013-04-23 07:23:00,
2013-04-23 00:24:00,46.8,30.5,30.39,SSE,158,0.0,0.0,53,0.00,,CLR,0.00,VWS V14.00,2013-04-23 07:24:00,
2013-04-23 00:28:00,46.4,30.2,30.39,SE,135,0.0,0.9,53,0.00,,CLR,0.00,VWS V14.00,2013-04-23 07:28:00,
2013-04-23 00:29:00,46.4,30.2,30.39,SE,135,0.0,0.9,53,0.00,,CLR,0.00,VWS V14.00,2013-04-23 07:29:00,
2013-04-23 00:33:00,46.2,30.0,30.39,SE,135,0.0,0.9,53,0.00,,CLR,0.00,VWS V14.00,2013-04-23 07:33:00,
2013-04-23 00:34:00,46.2,30.0,30.39,SSW,202,0.0,0.9,53,0.00,,CLR,0.00,VWS V14.00,2013-04-23 07:34:00,
2013-04-23 00:38:00,46.4,29.8,30.39,South,180,0.0,0.9,52,0.00,,CLR,0.00,VWS V14.00,2013-04-23 07:38:00,
2013-04-23 00:39:00,46.4,29.8,30.39,SSW,202,0.0,0.9,52,0.00,,CLR,0.00,VWS V14.00,2013-04-23 07:39:00,
2013-04-23 00:43:00,46.4,29.8,30.39,ESE,112,0.0,0.9,52,0.00,,CLR,0.00,VWS V14.00,2013-04-23 07:43:00,
2013-04-23 00:44:00,46.4,29.8,30.39,ESE,112,0.0,0.0,52,0.00,,CLR,0.00,VWS V14.00,2013-04-23 07:44:00,
2013-04-23 00:48:00,46.0,29.9,30.39,ESE,112,0.0,0.0,53,0.00,,CLR,0.00,VWS V14.00,2013-04-23 07:48:00,
2013-04-23 00:49:00,45.9,30.2,30.39,WSW,248,0.0,0.0,54,0.00,,CLR,0.00,VWS V14.00,2013-04-23 07:49:00,
2013-04-23 00:50:00,45.9,30.2,30.39,SSW,202,0.0,0.0,54,0.00,,CLR,0.00,VWS V14.00,2013-04-23 07:50:00,
2013-04-23 00:53:00,45.7,29.5,30.39,SE,135,0.0,0.0,53,0.00,,CLR,0.00,VWS V14.00,2013-04-23 07:53:00,
2013-04-23 00:54:00,45.7,29.5,30.39,East,90,0.0,0.0,53,0.00,,CLR,0.00,VWS V14.00,2013-04-23 07:54:00,
2013-04-23 00:55:00,45.7,29.5,30.39,East,90,0.0,0.0,53,0.00,,CLR,0.00,VWS V14.00,2013-04-23 07:55:00,
2013-04-23 00:58:00,45.5,29.4,30.39,SE,135,0.0,0.0,53,0.00,,CLR,0.00,VWS V14.00,2013-04-23 07:58:00,
2013-04-23 00:59:00,45.5,29.4,30.39,SSE,158,1.6,1.6,53,0.00,,CLR,0.00,VWS V14.00,2013-04-23 07:59:00,
2013-04-23 01:00:00,45.5,29.4,30.39,East,90,0.0,1.6,53,0.00,,CLR,0.00,VWS V14.00,2013-04-23 08:00:00,
2013-04-23 01:03:00,45.5,29.8,30.39,ESE,112,0.0,1.6,54,0.00,,CLR,0.00,VWS V14.00,2013-04-23 08:03:00,
2013-04-23 01:04:00,45.5,29.8,30.39,ESE,112,0.0,1.6,54,0.00,,CLR,0.00,VWS V14.00,2013-04-23 08:04:00,
2013-04-23 01:05:00,45.3,29.2,30.39,ESE,112,0.0,1.6,53,0.00,,CLR,0.00,VWS V14.00,2013-04-23 08:05:00,
2013-04-23 01:08:00,45.1,29.5,30.39,East,90,0.0,1.6,54,0.00,,CLR,0.00,VWS V14.00,2013-04-23 08:08:00,
2013-04-23 01:09:00,45.1,29.5,30.39,ESE,112,0.0,1.6,54,0.00,,CLR,0.00,VWS V14.00,2013-04-23 08:09:00,
2013-04-23 01:10:00,45.1,29.5,30.39,ESE,112,0.0,1.6,54,0.00,,CLR,0.00,VWS V14.00,2013-04-23 08:10:00,
2013-04-23 01:13:00,44.8,29.6,30.39,ESE,112,0.0,1.6,55,0.00,,CLR,0.00,VWS V14.00,2013-04-23 08:13:00,
2013-04-23 01:14:00,44.8,29.6,30.39,East,90,0.0,1.6,55,0.00,,CLR,0.00,VWS V14.00,2013-04-23 08:14:00,
2013-04-23 01:15:00,44.8,29.6,30.39,ESE,112,0.0,1.6,55,0.00,,CLR,0.00,VWS V14.00,2013-04-23 08:15:00,
2013-04-23 01:18:00,44.8,29.2,30.39,SE,135,0.0,0.0,54,0.00,,CLR,0.00,VWS V14.00,2013-04-23 08:18:00,
2013-04-23 01:19:00,44.8,29.6,30.39,SE,135,0.0,0.0,55,0.00,,CLR,0.00,VWS V14.00,2013-04-23 08:19:00,
2013-04-23 01:20:00,44.8,29.6,30.39,ESE,112,0.0,0.0,55,0.00,,CLR,0.00,VWS V14.00,2013-04-23 08:20:00,
2013-04-23 01:23:00,44.6,29.0,30.39,ESE,112,0.0,0.0,54,0.00,,CLR,0.00,VWS V14.00,2013-04-23 08:23:00,
2013-04-23 01:24:00,44.8,29.2,30.39,ESE,112,0.0,0.0,54,0.00,,CLR,0.00,VWS V14.00,2013-04-23 08:24:00,
2013-04-23 01:25:00,44.8,29.2,30.39,ESE,112,0.0,0.0,54,0.00,,CLR,0.00,VWS V14.00,2013-04-23 08:25:00,
2013-04-23 01:28:00,44.8,29.2,30.39,SE,135,0.0,0.0,54,0.00,,CLR,0.00,VWS V14.00,2013-04-23 08:28:00,
2013-04-23 01:29:00,44.8,29.2,30.39,SE,135,0.0,0.0,54,0.00,,CLR,0.00,VWS V14.00,2013-04-23 08:29:00,
2013-04-23 01:30:00,44.6,29.0,30.39,SE,135,0.0,0.0,54,0.00,,CLR,0.00,VWS V14.00,2013-04-23 08:30:00,
2013-04-23 01:33:00,44.4,29.3,30.39,ESE,112,0.0,0.0,55,0.00,,CLR,0.00,VWS V14.00,2013-04-23 08:33:00,
2013-04-23 01:34:00,44.4,29.3,30.39,ESE,112,0.0,0.0,55,0.00,,CLR,0.00,VWS V14.00,2013-04-23 08:34:00,
2013-04-23 01:35:00,44.4,29.3,30.39,ESE,112,0.0,0.0,55,0.00,,CLR,0.00,VWS V14.00,2013-04-23 08:35:00,
2013-04-23 01:38:00,44.2,29.1,30.39,East,90,2.2,2.2,55,0.00,,CLR,0.00,VWS V14.00,2013-04-23 08:38:00,
2013-04-23 01:39:00,44.2,29.1,30.39,ESE,112,0.0,2.2,55,0.00,,CLR,0.00,VWS V14.00,2013-04-23 08:39:00,
2013-04-23 01:40:00,44.4,28.8,30.39,SE,135,0.0,2.2,54,0.00,,CLR,0.00,VWS V14.00,2013-04-23 08:40:00,
2013-04-23 01:43:00,44.8,28.7,30.39,SSE,158,0.0,2.2,53,0.00,,CLR,0.00,VWS V14.00,2013-04-23 08:43:00,
2013-04-23 01:44:00,44.8,28.7,30.39,SSE,158,0.0,2.2,53,0.00,,CLR,0.00,VWS V14.00,2013-04-23 08:44:00,
2013-04-23 01:45:00,44.8,28.7,30.39,SE,135,2.7,2.7,53,0.00,,CLR,0.00,VWS V14.00,2013-04-23 08:45:00,
2013-04-23 01:48:00,44.8,28.7,30.39,WSW,248,0.0,2.7,53,0.00,,CLR,0.00,VWS V14.00,2013-04-23 08:48:00,
2013-04-23 01:49:00,44.8,28.7,30.39,WSW,248,0.0,2.7,53,0.00,,CLR,0.00,VWS V14.00,2013-04-23 08:49:00,
2013-04-23 01:50:00,44.8,28.7,30.39,WSW,248,0.0,2.7,53,0.00,,CLR,0.00,VWS V14.00,2013-04-23 08:50:00,
2013-04-23 01:53:00,44.8,28.7,30.39,ESE,112,0.0,2.7,53,0.00,,CLR,0.00,VWS V14.00,2013-04-23 08:53:00,
2013-04-23 01:54:00,44.6,28.5,30.39,ESE,112,0.0,2.7,53,0.00,,CLR,0.00,VWS V14.00,2013-04-23 08:54:00,
2013-04-23 01:55:00,44.6,28.5,30.39,ESE,112,0.0,2.7,53,0.00,,CLR,0.00,VWS V14.00,2013-04-23 08:55:00,
2013-04-23 01:59:00,44.8,28.7,30.39,SE,135,1.1,2.7,53,0.00,,CLR,0.00,VWS V14.00,2013-04-23 08:59:00,
2013-04-23 02:00:00,44.8,28.7,30.39,SE,135,0.0,2.7,53,0.00,,CLR,0.00,VWS V14.00,2013-04-23 09:00:00,
2013-04-23 02:04:00,44.6,28.5,30.39,ESE,112,0.0,2.7,53,0.00,,CLR,0.00,VWS V14.00,2013-04-23 09:04:00,
2013-04-23 02:05:00,44.2,28.7,30.39,ESE,112,0.0,2.7,54,0.00,,CLR,0.00,VWS V14.00,2013-04-23 09:05:00,
2013-04-23 02:09:00,44.1,28.5,30.39,ESE,112,0.0,2.7,54,0.00,,CLR,0.00,VWS V14.00,2013-04-23 09:09:00,
2013-04-23 02:10:00,44.1,28.5,30.39,ESE,112,0.0,2.7,54,0.00,,CLR,0.00,VWS V14.00,2013-04-23 09:10:00,
2013-04-23 02:14:00,44.1,28.5,30.39,SE,135,0.0,1.6,54,0.00,,CLR,0.00,VWS V14.00,2013-04-23 09:14:00,
2013-04-23 02:15:00,43.9,28.8,30.39,SE,135,0.0,1.6,55,0.00,,CLR,0.00,VWS V14.00,2013-04-23 09:15:00,
2013-04-23 02:19:00,43.5,28.4,30.39,SE,135,0.0,0.0,55,0.00,,CLR,0.00,VWS V14.00,2013-04-23 09:19:00,
2013-04-23 02:20:00,43.5,28.4,30.39,ESE,112,0.0,0.0,55,0.00,,CLR,0.00,VWS V14.00,2013-04-23 09:20:00,
2013-04-23 02:24:00,43.3,28.3,30.39,ESE,112,0.0,0.0,55,0.00,,CLR,0.00,VWS V14.00,2013-04-23 09:24:00,
2013-04-23 02:25:00,43.3,28.3,30.39,ESE,112,0.0,0.0,55,0.00,,CLR,0.00,VWS V14.00,2013-04-23 09:25:00,
2013-04-23 02:29:00,43.3,28.3,30.39,ESE,112,0.0,0.0,55,0.00,,CLR,0.00,VWS V14.00,2013-04-23 09:29:00,
2013-04-23 02:30:00,43.3,28.3,30.39,ESE,112,0.0,0.0,55,0.00,,CLR,0.00,VWS V14.00,2013-04-23 09:30:00,
2013-04-23 02:34:00,43.0,27.9,30.39,ESE,112,0.0,0.0,55,0.00,,CLR,0.00,VWS V14.00,2013-04-23 09:34:00,
2013-04-23 02:35:00,43.0,27.9,30.39,ESE,112,0.0,0.0,55,0.00,,CLR,0.00,VWS V14.00,2013-04-23 09:35:00,
2013-04-23 02:39:00,42.8,28.2,30.39,ESE,112,0.0,0.0,56,0.00,,CLR,0.00,VWS V14.00,2013-04-23 09:39:00,
2013-04-23 02:40:00,42.8,28.2,30.39,ESE,112,0.0,0.0,56,0.00,,CLR,0.00,VWS V14.00,2013-04-23 09:40:00,
2013-04-23 02:44:00,42.8,27.8,30.39,SE,135,0.0,0.0,55,0.00,,CLR,0.00,VWS V14.00,2013-04-23 09:44:00,
2013-04-23 02:45:00,42.8,27.8,30.39,SE,135,0.0,0.0,55,0.00,,CLR,0.00,VWS V14.00,2013-04-23 09:45:00,
2013-04-23 02:49:00,42.4,27.9,30.39,SE,135,0.0,0.0,56,0.00,,CLR,0.00,VWS V14.00,2013-04-23 09:49:00,
2013-04-23 02:50:00,42.4,27.9,30.39,SE,135,0.0,0.0,56,0.00,,CLR,0.00,VWS V14.00,2013-04-23 09:50:00,
2013-04-23 02:54:00,42.4,27.9,30.39,West,270,0.0,0.0,56,0.00,,CLR,0.00,VWS V14.00,2013-04-23 09:54:00,
2013-04-23 02:55:00,42.4,27.9,30.39,West,270,0.0,0.0,56,0.00,,CLR,0.00,VWS V14.00,2013-04-23 09:55:00,
2013-04-23 02:59:00,42.6,27.6,30.36,SW,225,0.0,0.0,55,0.00,,CLR,0.00,VWS V14.00,2013-04-23 09:59:00,
2013-04-23 03:00:00,42.6,27.6,30.36,SW,225,0.0,0.0,55,0.00,,CLR,0.00,VWS V14.00,2013-04-23 10:00:00,
2013-04-23 03:01:00,42.6,27.6,30.36,SW,225,0.0,0.0,55,0.00,,CLR,0.00,VWS V14.00,2013-04-23 10:01:00,
2013-04-23 03:04:00,42.4,27.9,30.36,SE,135,0.0,0.0,56,0.00,,CLR,0.00,VWS V14.00,2013-04-23 10:04:00,
2013-04-23 03:05:00,42.4,27.9,30.36,SE,135,0.0,0.0,56,0.00,,CLR,0.00,VWS V14.00,2013-04-23 10:05:00,
2013-04-23 03:06:00,42.4,27.9,30.36,SE,135,0.0,0.0,56,0.00,,CLR,0.00,VWS V14.00,2013-04-23 10:06:00,
2013-04-23 03:10:00,42.3,27.7,30.36,SSE,158,0.0,0.0,56,0.00,,CLR,0.00,VWS V14.00,2013-04-23 10:10:00,
2013-04-23 03:11:00,42.3,27.7,30.36,SSE,158,0.0,0.0,56,0.00,,CLR,0.00,VWS V14.00,2013-04-23 10:11:00,
2013-04-23 03:15:00,42.1,28.0,30.36,South,180,0.0,0.0,57,0.00,,CLR,0.00,VWS V14.00,2013-04-23 10:15:00,
2013-04-23 03:16:00,42.1,28.0,30.36,South,180,0.0,0.0,57,0.00,,CLR,0.00,VWS V14.00,2013-04-23 10:16:00,
2013-04-23 03:20:00,42.1,28.0,30.36,East,90,0.0,0.0,57,0.00,,CLR,0.00,VWS V14.00,2013-04-23 10:20:00,
2013-04-23 03:21:00,41.9,27.8,30.36,East,90,0.0,0.0,57,0.00,,CLR,0.00,VWS V14.00,2013-04-23 10:21:00,
2013-04-23 03:25:00,41.7,28.0,30.36,ESE,112,0.0,0.0,58,0.00,,CLR,0.00,VWS V14.00,2013-04-23 10:25:00,
2013-04-23 03:26:00,41.7,28.0,30.36,ESE,112,0.0,0.0,58,0.00,,CLR,0.00,VWS V14.00,2013-04-23 10:26:00,
2013-04-23 03:30:00,41.5,27.9,30.36,ESE,112,0.0,0.0,58,0.00,,CLR,0.00,VWS V14.00,2013-04-23 10:30:00,
2013-04-23 03:31:00,41.5,27.9,30.36,ESE,112,0.0,0.0,58,0.00,,CLR,0.00,VWS V14.00,2013-04-23 10:31:00,
2013-04-23 03:35:00,41.5,27.9,30.36,South,180,0.0,0.0,58,0.00,,CLR,0.00,VWS V14.00,2013-04-23 10:35:00,
2013-04-23 03:36:00,41.5,27.9,30.36,SSE,158,0.0,0.0,58,0.00,,CLR,0.00,VWS V14.00,2013-04-23 10:36:00,
2013-04-23 03:40:00,41.2,28.0,30.36,ESE,112,0.0,0.0,59,0.00,,CLR,0.00,VWS V14.00,2013-04-23 10:40:00,
2013-04-23 03:41:00,41.2,28.0,30.36,ESE,112,0.0,0.0,59,0.00,,CLR,0.00,VWS V14.00,2013-04-23 10:41:00,
2013-04-23 03:45:00,41.2,28.0,30.36,ESE,112,0.0,0.0,59,0.00,,CLR,0.00,VWS V14.00,2013-04-23 10:45:00,
2013-04-23 03:46:00,41.0,27.8,30.36,ESE,112,0.0,0.0,59,0.00,,CLR,0.00,VWS V14.00,2013-04-23 10:46:00,
2013-04-23 03:50:00,41.0,27.8,30.36,ESE,112,0.0,0.0,59,0.00,,CLR,0.00,VWS V14.00,2013-04-23 10:50:00,
2013-04-23 03:51:00,40.8,28.0,30.36,ESE,112,0.0,0.0,60,0.00,,CLR,0.00,VWS V14.00,2013-04-23 10:51:00,
2013-04-23 03:55:00,40.6,27.9,30.36,ESE,112,0.0,0.0,60,0.00,,CLR,0.00,VWS V14.00,2013-04-23 10:55:00,
2013-04-23 03:56:00,40.6,28.3,30.36,ESE,112,0.0,0.0,61,0.00,,CLR,0.00,VWS V14.00,2013-04-23 10:56:00,
2013-04-23 04:00:00,40.6,28.6,30.36,ESE,112,0.0,0.0,62,0.00,,CLR,0.00,VWS V14.00,2013-04-23 11:00:00,
2013-04-23 04:01:00,40.6,28.6,30.36,ESE,112,0.0,0.0,62,0.00,,CLR,0.00,VWS V14.00,2013-04-23 11:01:00,
2013-04-23 04:05:00,40.3,28.7,30.36,ESE,112,0.0,0.0,63,0.00,,CLR,0.00,VWS V14.00,2013-04-23 11:05:00,
2013-04-23 04:06:00,40.3,28.7,30.36,ESE,112,0.0,0.0,63,0.00,,CLR,0.00,VWS V14.00,2013-04-23 11:06:00,
2013-04-23 04:10:00,40.3,29.1,30.36,ESE,112,0.0,0.0,64,0.00,,CLR,0.00,VWS V14.00,2013-04-23 11:10:00,
2013-04-23 04:11:00,40.3,29.1,30.36,ESE,112,0.0,0.0,64,0.00,,CLR,0.00,VWS V14.00,2013-04-23 11:11:00,
2013-04-23 04:15:00,40.1,28.9,30.36,ESE,112,0.0,0.0,64,0.00,,CLR,0.00,VWS V14.00,2013-04-23 11:15:00,
2013-04-23 04:16:00,40.1,28.9,30.36,ESE,112,0.0,0.0,64,0.00,,CLR,0.00,VWS V14.00,2013-04-23 11:16:00,
2013-04-23 04:20:00,39.9,29.1,30.36,SSW,202,0.0,0.0,65,0.00,,CLR,0.00,VWS V14.00,2013-04-23 11:20:00,
2013-04-23 04:21:00,39.9,29.1,30.36,SSE,158,0.0,0.0,65,0.00,,CLR,0.00,VWS V14.00,2013-04-23 11:21:00,
2013-04-23 04:22:00,39.9,29.1,30.36,SSE,158,0.0,0.0,65,0.00,,CLR,0.00,VWS V14.00,2013-04-23 11:22:00,
2013-04-23 04:25:00,39.6,29.1,30.36,SSE,158,0.0,0.0,66,0.00,,CLR,0.00,VWS V14.00,2013-04-23 11:25:00,
2013-04-23 04:26:00,39.6,29.1,30.36,SSE,158,0.0,0.0,66,0.00,,CLR,0.00,VWS V14.00,2013-04-23 11:26:00,
2013-04-23 04:27:00,39.6,29.1,30.36,ESE,112,0.0,0.0,66,0.00,,CLR,0.00,VWS V14.00,2013-04-23 11:27:00,
2013-04-23 04:30:00,39.4,29.0,30.36,ESE,112,0.0,0.0,66,0.00,,CLR,0.00,VWS V14.00,2013-04-23 11:30:00,
2013-04-23 04:31:00,39.4,29.0,30.36,ESE,112,0.0,0.0,66,0.00,,CLR,0.00,VWS V14.00,2013-04-23 11:31:00,
2013-04-23 04:32:00,39.4,29.0,30.36,ESE,112,0.0,0.0,66,0.00,,CLR,0.00,VWS V14.00,2013-04-23 11:32:00,
2013-04-23 04:35:00,39.2,28.8,30.36,ESE,112,0.0,0.0,66,0.00,,CLR,0.00,VWS V14.00,2013-04-23 11:35:00,
2013-04-23 04:36:00,39.2,28.8,30.36,ESE,112,0.0,0.0,66,0.00,,CLR,0.00,VWS V14.00,2013-04-23 11:36:00,
2013-04-23 04:37:00,39.2,28.8,30.36,ESE,112,0.0,0.0,66,0.00,,CLR,0.00,VWS V14.00,2013-04-23 11:37:00,
2013-04-23 04:40:00,39.2,29.2,30.36,SSE,158,0.0,0.0,67,0.00,,CLR,0.00,VWS V14.00,2013-04-23 11:40:00,
2013-04-23 04:41:00,39.2,29.2,30.36,SSE,158,0.0,0.0,67,0.00,,CLR,0.00,VWS V14.00,2013-04-23 11:41:00,
2013-04-23 04:42:00,39.0,29.4,30.36,ESE,112,0.0,0.0,68,0.00,,CLR,0.00,VWS V14.00,2013-04-23 11:42:00,
2013-04-23 04:46:00,39.0,29.4,30.36,ESE,112,0.0,0.0,68,0.00,,CLR,0.00,VWS V14.00,2013-04-23 11:46:00,
2013-04-23 04:47:00,39.0,29.7,30.36,ESE,112,0.0,0.0,69,0.00,,CLR,0.00,VWS V14.00,2013-04-23 11:47:00,
2013-04-23 04:51:00,39.0,29.7,30.36,ESE,112,0.0,0.0,69,0.00,,CLR,0.00,VWS V14.00,2013-04-23 11:51:00,
2013-04-23 04:52:00,39.0,29.7,30.36,ESE,112,0.0,0.0,69,0.00,,CLR,0.00,VWS V14.00,2013-04-23 11:52:00,
2013-04-23 04:56:00,38.8,29.5,30.36,ESE,112,0.0,0.0,69,0.00,,CLR,0.00,VWS V14.00,2013-04-23 11:56:00,
2013-04-23 04:57:00,38.8,29.5,30.36,ESE,112,0.0,0.0,69,0.00,,CLR,0.00,VWS V14.00,2013-04-23 11:57:00,
2013-04-23 05:01:00,38.8,29.9,30.36,ESE,112,0.0,0.0,70,0.00,,CLR,0.00,VWS V14.00,2013-04-23 12:01:00,
2013-04-23 05:02:00,38.8,29.9,30.36,ESE,112,0.0,0.0,70,0.00,,CLR,0.00,VWS V14.00,2013-04-23 12:02:00,
2013-04-23 05:06:00,38.7,29.7,30.36,ESE,112,0.0,0.0,70,0.00,,CLR,0.00,VWS V14.00,2013-04-23 12:06:00,
2013-04-23 05:07:00,38.7,29.7,30.36,ESE,112,0.0,0.0,70,0.00,,CLR,0.00,VWS V14.00,2013-04-23 12:07:00,
2013-04-23 05:11:00,38.5,29.2,30.36,ESE,112,0.0,0.0,69,0.00,,CLR,0.00,VWS V14.00,2013-04-23 12:11:00,
2013-04-23 05:12:00,38.5,29.2,30.36,ESE,112,0.0,0.0,69,0.00,,CLR,0.00,VWS V14.00,2013-04-23 12:12:00,
2013-04-23 05:16:00,38.5,29.6,30.36,ESE,112,0.0,0.0,70,0.00,,CLR,0.00,VWS V14.00,2013-04-23 12:16:00,
2013-04-23 05:17:00,38.5,29.6,30.36,ESE,112,0.0,0.0,70,0.00,,CLR,0.00,VWS V14.00,2013-04-23 12:17:00,
2013-04-23 05:21:00,38.3,29.4,30.36,ESE,112,0.0,0.0,70,0.00,,CLR,0.00,VWS V14.00,2013-04-23 12:21:00,
2013-04-23 05:22:00,38.3,29.4,30.36,ESE,112,0.0,0.0,70,0.00,,CLR,0.00,VWS V14.00,2013-04-23 12:22:00,
2013-04-23 05:26:00,38.1,29.6,30.36,ESE,112,0.0,0.0,71,0.00,,CLR,0.00,VWS V14.00,2013-04-23 12:26:00,
2013-04-23 05:27:00,38.1,29.6,30.36,ESE,112,0.0,0.0,71,0.00,,CLR,0.00,VWS V14.00,2013-04-23 12:27:00,
2013-04-23 05:28:00,38.1,29.6,30.36,ESE,112,0.0,0.0,71,0.00,,CLR,0.00,VWS V14.00,2013-04-23 12:28:00,
2013-04-23 05:31:00,38.1,29.6,30.36,ESE,112,0.0,0.0,71,0.00,,CLR,0.00,VWS V14.00,2013-04-23 12:31:00,
2013-04-23 05:32:00,38.1,29.6,30.36,ESE,112,0.0,0.0,71,0.00,,CLR,0.00,VWS V14.00,2013-04-23 12:32:00,
2013-04-23 05:33:00,38.1,29.6,30.36,ESE,112,0.0,0.0,71,0.00,,CLR,0.00,VWS V14.00,2013-04-23 12:33:00,
2013-04-23 05:36:00,37.9,29.4,30.36,ESE,112,0.0,0.0,71,0.00,,CLR,0.00,VWS V14.00,2013-04-23 12:36:00,
2013-04-23 05:37:00,37.9,29.4,30.36,ESE,112,0.0,0.0,71,0.00,,CLR,0.00,VWS V14.00,2013-04-23 12:37:00,
2013-04-23 05:38:00,37.9,29.4,30.36,ESE,112,0.0,0.0,71,0.00,,CLR,0.00,VWS V14.00,2013-04-23 12:38:00,
2013-04-23 05:41:00,37.9,29.4,30.36,ESE,112,0.0,0.0,71,0.00,,CLR,0.00,VWS V14.00,2013-04-23 12:41:00,
2013-04-23 05:42:00,37.8,29.2,30.36,ESE,112,0.0,0.0,71,0.00,,CLR,0.00,VWS V14.00,2013-04-23 12:42:00,
2013-04-23 05:43:00,37.8,29.2,30.36,ESE,112,0.0,0.0,71,0.00,,CLR,0.00,VWS V14.00,2013-04-23 12:43:00,
2013-04-23 05:46:00,37.8,29.2,30.36,ESE,112,0.0,0.0,71,0.00,,CLR,0.00,VWS V14.00,2013-04-23 12:46:00,
2013-04-23 05:47:00,37.6,29.0,30.36,ESE,112,0.0,0.0,71,0.00,,CLR,0.00,VWS V14.00,2013-04-23 12:47:00,
2013-04-23 05:48:00,37.6,29.0,30.36,ESE,112,0.0,0.0,71,0.00,,CLR,0.00,VWS V14.00,2013-04-23 12:48:00,
2013-04-23 05:51:00,37.6,28.7,30.36,ESE,112,0.0,0.0,70,0.00,,CLR,0.00,VWS V14.00,2013-04-23 12:51:00,
2013-04-23 05:52:00,37.6,28.7,30.36,ESE,112,0.0,0.0,70,0.00,,CLR,0.00,VWS V14.00,2013-04-23 12:52:00,
2013-04-23 05:53:00,37.6,29.0,30.36,ESE,112,0.0,0.0,71,0.00,,CLR,0.00,VWS V14.00,2013-04-23 12:53:00,
2013-04-23 05:57:00,37.6,28.7,30.36,ESE,112,0.0,0.0,70,0.00,,CLR,0.00,VWS V14.00,2013-04-23 12:57:00,
2013-04-23 05:58:00,37.6,29.0,30.36,ESE,112,0.0,0.0,71,0.00,,CLR,0.00,VWS V14.00,2013-04-23 12:58:00,
2013-04-23 06:02:00,37.6,29.0,30.36,ESE,112,0.0,0.0,71,0.00,,CLR,0.00,VWS V14.00,2013-04-23 13:02:00,
2013-04-23 06:03:00,37.4,28.9,30.36,ESE,112,0.0,0.0,71,0.00,,CLR,0.00,VWS V14.00,2013-04-23 13:03:00,
2013-04-23 06:07:00,37.2,28.7,30.36,ESE,112,0.0,0.0,71,0.00,,CLR,0.00,VWS V14.00,2013-04-23 13:07:00,
2013-04-23 06:08:00,37.2,28.7,30.36,ESE,112,0.0,0.0,71,0.00,,CLR,0.00,VWS V14.00,2013-04-23 13:08:00,
2013-04-23 06:12:00,37.2,28.7,30.36,SE,135,0.0,0.0,71,0.00,,CLR,0.00,VWS V14.00,2013-04-23 13:12:00,
2013-04-23 06:13:00,37.2,28.7,30.36,SE,135,0.0,0.0,71,0.00,,CLR,0.00,VWS V14.00,2013-04-23 13:13:00,
2013-04-23 06:17:00,37.2,28.7,30.36,SSW,202,0.0,0.0,71,0.00,,CLR,0.00,VWS V14.00,2013-04-23 13:17:00,
2013-04-23 06:18:00,37.2,28.7,30.36,SSW,202,0.0,0.0,71,0.00,,CLR,0.00,VWS V14.00,2013-04-23 13:18:00,
2013-04-23 06:22:00,37.2,28.7,30.36,SSW,202,0.0,0.0,71,0.00,,CLR,0.00,VWS V14.00,2013-04-23 13:22:00,
2013-04-23 06:23:00,37.2,28.7,30.36,SSW,202,0.0,0.0,71,0.00,,CLR,0.00,VWS V14.00,2013-04-23 13:23:00,
2013-04-23 06:27:00,37.4,28.9,30.36,SSW,202,0.0,0.0,71,0.00,,CLR,0.00,VWS V14.00,2013-04-23 13:27:00,
2013-04-23 06:28:00,37.4,28.9,30.36,SSW,202,0.0,0.0,71,0.00,,CLR,0.00,VWS V14.00,2013-04-23 13:28:00,
2013-04-23 06:32:00,37.6,29.4,30.36,SSW,202,0.0,0.0,72,0.00,,CLR,0.00,VWS V14.00,2013-04-23 13:32:00,
2013-04-23 06:33:00,37.6,29.4,30.36,SSW,202,0.0,0.0,72,0.00,,CLR,0.00,VWS V14.00,2013-04-23 13:33:00,
2013-04-23 06:37:00,37.9,29.7,30.36,WSW,248,0.0,0.0,72,0.00,,CLR,0.00,VWS V14.00,2013-04-23 13:37:00,
2013-04-23 06:38:00,37.9,29.7,30.36,WSW,248,0.0,0.0,72,0.00,,CLR,0.00,VWS V14.00,2013-04-23 13:38:00,
2013-04-23 06:42:00,37.9,29.7,30.36,SW,225,0.0,0.0,72,0.00,,CLR,0.00,VWS V14.00,2013-04-23 13:42:00,
2013-04-23 06:43:00,37.9,29.7,30.36,East,90,0.0,0.0,72,0.00,,CLR,0.00,VWS V14.00,2013-04-23 13:43:00,
2013-04-23 06:47:00,38.1,29.9,30.36,East,90,0.0,0.0,72,0.00,,CLR,0.00,VWS V14.00,2013-04-23 13:47:00,
2013-04-23 06:48:00,38.1,29.9,30.36,East,90,0.0,0.0,72,0.00,,CLR,0.00,VWS V14.00,2013-04-23 13:48:00,
2013-04-23 06:52:00,38.5,30.2,30.36,ESE,112,0.0,0.0,72,0.00,,CLR,0.00,VWS V14.00,2013-04-23 13:52:00,
2013-04-23 06:53:00,38.5,30.2,30.36,ESE,112,0.0,0.0,72,0.00,,CLR,0.00,VWS V14.00,2013-04-23 13:53:00,
2013-04-23 06:57:00,38.7,30.4,30.36,ESE,112,0.0,0.0,72,0.00,,CLR,0.00,VWS V14.00,2013-04-23 13:57:00,
2013-04-23 06:58:00,38.7,30.4,30.36,ESE,112,0.0,0.0,72,0.00,,CLR,0.00,VWS V14.00,2013-04-23 13:58:00,
2013-04-23 07:02:00,39.4,31.1,30.36,ESE,112,0.0,0.0,72,0.00,,CLR,0.00,VWS V14.00,2013-04-23 14:02:00,
2013-04-23 07:03:00,39.7,31.5,30.36,ESE,112,0.0,0.0,72,0.00,,CLR,0.00,VWS V14.00,2013-04-23 14:03:00,
2013-04-23 07:04:00,39.7,31.5,30.36,ESE,112,0.0,0.0,72,0.00,,CLR,0.00,VWS V14.00,2013-04-23 14:04:00,
2013-04-23 07:07:00,40.1,31.8,30.36,ESE,112,0.0,0.0,72,0.00,,CLR,0.00,VWS V14.00,2013-04-23 14:07:00,
2013-04-23 07:08:00,40.1,31.8,30.36,ESE,112,0.0,0.0,72,0.00,,CLR,0.00,VWS V14.00,2013-04-23 14:08:00,
2013-04-23 07:09:00,40.3,31.6,30.36,ESE,112,0.0,0.0,71,0.00,,CLR,0.00,VWS V14.00,2013-04-23 14:09:00,
2013-04-23 07:12:00,40.6,32.0,30.36,ESE,112,0.0,0.0,71,0.00,,CLR,0.00,VWS V14.00,2013-04-23 14:12:00,
2013-04-23 07:13:00,40.6,32.0,30.36,ESE,112,0.0,0.0,71,0.00,,CLR,0.00,VWS V14.00,2013-04-23 14:13:00,
2013-04-23 07:14:00,41.0,32.3,30.36,ESE,112,0.0,0.0,71,0.00,,CLR,0.00,VWS V14.00,2013-04-23 14:14:00,
2013-04-23 07:17:00,41.5,32.8,30.36,ESE,112,0.0,0.0,71,0.00,,CLR,0.00,VWS V14.00,2013-04-23 14:17:00,
2013-04-23 07:18:00,41.5,32.8,30.36,ESE,112,0.0,0.0,71,0.00,,CLR,0.00,VWS V14.00,2013-04-23 14:18:00,
2013-04-23 07:19:00,41.7,32.7,30.36,ESE,112,0.0,0.0,70,0.00,,CLR,0.00,VWS V14.00,2013-04-23 14:19:00,
2013-04-23 07:22:00,42.3,33.2,30.36,NE,45,0.0,0.0,70,0.00,,CLR,0.00,VWS V14.00,2013-04-23 14:22:00,
2013-04-23 07:23:00,42.3,33.2,30.36,NE,45,0.0,0.0,70,0.00,,CLR,0.00,VWS V14.00,2013-04-23 14:23:00,
2013-04-23 07:24:00,42.3,33.2,30.36,NE,45,0.0,0.0,70,0.00,,CLR,0.00,VWS V14.00,2013-04-23 14:24:00,
2013-04-23 07:28:00,43.0,33.9,30.36,East,90,0.0,0.0,70,0.00,,CLR,0.00,VWS V14.00,2013-04-23 14:28:00,
2013-04-23 07:29:00,43.0,33.9,30.36,East,90,0.0,0.0,70,0.00,,CLR,0.00,VWS V14.00,2013-04-23 14:29:00,
2013-04-23 07:33:00,43.3,34.2,30.36,NE,45,0.0,0.0,70,0.00,,CLR,0.00,VWS V14.00,2013-04-23 14:33:00,
2013-04-23 07:34:00,43.3,34.2,30.36,NE,45,0.0,0.0,70,0.00,,CLR,0.00,VWS V14.00,2013-04-23 14:34:00,
2013-04-23 07:38:00,43.9,34.7,30.36,NE,45,0.0,0.0,70,0.00,,CLR,0.00,VWS V14.00,2013-04-23 14:38:00,
2013-04-23 07:39:00,43.9,34.4,30.36,NE,45,0.0,0.0,69,0.00,,CLR,0.00,VWS V14.00,2013-04-23 14:39:00,
2013-04-23 07:43:00,43.7,34.2,30.36,ENE,68,0.0,0.0,69,0.00,,CLR,0.00,VWS V14.00,2013-04-23 14:43:00,
2013-04-23 07:44:00,43.7,34.2,30.36,NNW,338,0.0,0.0,69,0.00,,CLR,0.00,VWS V14.00,2013-04-23 14:44:00,
2013-04-23 07:48:00,43.7,34.2,30.36,NE,45,0.0,0.0,69,0.00,,CLR,0.00,VWS V14.00,2013-04-23 14:48:00,
2013-04-23 07:49:00,43.7,34.2,30.36,NE,45,0.0,0.0,69,0.00,,CLR,0.00,VWS V14.00,2013-04-23 14:49:00,
2013-04-23 07:53:00,43.7,34.2,30.36,NNW,338,0.0,0.0,69,0.00,,CLR,0.00,VWS V14.00,2013-04-23 14:53:00,
2013-04-23 07:54:00,44.1,34.9,30.36,NNW,338,0.0,0.0,70,0.00,,CLR,0.00,VWS V14.00,2013-04-23 14:54:00,
2013-04-23 07:58:00,43.7,34.6,30.36,WNW,292,0.0,0.0,70,0.00,,CLR,0.00,VWS V14.00,2013-04-23 14:58:00,
2013-04-23 07:59:00,43.7,34.6,30.36,North,0,0.0,0.0,70,0.00,,CLR,0.00,VWS V14.00,2013-04-23 14:59:00,
2013-04-23 08:03:00,43.5,34.4,30.36,NNE,22,0.0,0.0,70,0.00,,CLR,0.00,VWS V14.00,2013-04-23 15:03:00,
2013-04-23 08:04:00,43.5,34.4,30.36,NE,45,0.0,0.0,70,0.00,,CLR,0.00,VWS V14.00,2013-04-23 15:04:00,
2013-04-23 08:08:00,43.5,34.4,30.36,SW,225,0.0,0.0,70,0.00,,CLR,0.00,VWS V14.00,2013-04-23 15:08:00,
2013-04-23 08:09:00,43.5,34.4,30.36,SSW,202,0.0,0.0,70,0.00,,CLR,0.00,VWS V14.00,2013-04-23 15:09:00,
2013-04-23 08:13:00,43.5,34.0,30.36,WSW,248,0.0,0.0,69,0.00,,CLR,0.00,VWS V14.00,2013-04-23 15:13:00,
2013-04-23 08:14:00,43.5,34.0,30.36,WNW,292,0.0,0.0,69,0.00,,CLR,0.00,VWS V14.00,2013-04-23 15:14:00,
2013-04-23 08:15:00,43.7,34.2,30.36,WNW,292,0.0,0.0,69,0.00,,CLR,0.00,VWS V14.00,2013-04-23 15:15:00,
2013-04-23 08:18:00,44.6,35.1,30.36,West,270,0.0,0.0,69,0.00,,CLR,0.00,VWS V14.00,2013-04-23 15:18:00,
2013-04-23 08:19:00,44.6,35.1,30.36,West,270,0.0,0.0,69,0.00,,CLR,0.00,VWS V14.00,2013-04-23 15:19:00,
2013-04-23 08:20:00,44.6,35.1,30.36,WNW,292,0.0,0.0,69,0.00,,CLR,0.00,VWS V14.00,2013-04-23 15:20:00,
2013-04-23 08:23:00,45.3,35.4,30.36,ENE,68,0.0,0.0,68,0.00,,CLR,0.00,VWS V14.00,2013-04-23 15:23:00,
2013-04-23 08:24:00,45.5,35.6,30.36,ENE,68,0.0,0.0,68,0.00,,CLR,0.00,VWS V14.00,2013-04-23 15:24:00,
2013-04-23 08:25:00,45.5,35.6,30.36,NNW,338,0.0,0.0,68,0.00,,CLR,0.00,VWS V14.00,2013-04-23 15:25:00,
2013-04-23 08:28:00,46.6,36.2,30.36,East,90,0.0,0.0,67,0.00,,CLR,0.00,VWS V14.00,2013-04-23 15:28:00,
2013-04-23 08:29:00,47.1,37.1,30.36,East,90,0.0,0.0,68,0.00,,CLR,0.00,VWS V14.00,2013-04-23 15:29:00,
2013-04-23 08:30:00,47.1,37.1,30.36,NNW,338,0.0,0.0,68,0.00,,CLR,0.00,VWS V14.00,2013-04-23 15:30:00,
2013-04-23 08:33:00,47.7,36.9,30.36,NNE,22,0.0,0.0,66,0.00,,CLR,0.00,VWS V14.00,2013-04-23 15:33:00,
2013-04-23 08:34:00,47.7,36.9,30.36,NNE,22,0.0,0.0,66,0.00,,CLR,0.00,VWS V14.00,2013-04-23 15:34:00,
2013-04-23 08:35:00,47.7,36.9,30.36,NNW,338,0.0,0.0,66,0.00,,CLR,0.00,VWS V14.00,2013-04-23 15:35:00,
2013-04-23 08:38:00,48.4,37.2,30.36,ENE,68,0.0,0.0,65,0.00,,CLR,0.00,VWS V14.00,2013-04-23 15:38:00,
2013-04-23 08:39:00,48.4,37.2,30.36,SSW,202,0.0,0.0,65,0.00,,CLR,0.00,VWS V14.00,2013-04-23 15:39:00,
2013-04-23 08:40:00,48.6,37.0,30.36,WNW,292,0.0,0.0,64,0.00,,CLR,0.00,VWS V14.00,2013-04-23 15:40:00,
2013-04-23 08:43:00,49.3,37.6,30.36,NNE,22,0.0,0.0,64,0.00,,CLR,0.00,VWS V14.00,2013-04-23 15:43:00,
2013-04-23 08:44:00,49.3,37.6,30.36,NNE,22,0.0,0.0,64,0.00,,CLR,0.00,VWS V14.00,2013-04-23 15:44:00,
2013-04-23 08:45:00,49.5,37.4,30.36,NNE,22,0.0,0.0,63,0.00,,CLR,0.00,VWS V14.00,2013-04-23 15:45:00,
2013-04-23 08:48:00,50.2,38.1,30.36,East,90,0.0,0.0,63,0.00,,CLR,0.00,VWS V14.00,2013-04-23 15:48:00,
2013-04-23 08:49:00,50.2,38.1,30.36,East,90,0.0,0.0,63,0.00,,CLR,0.00,VWS V14.00,2013-04-23 15:49:00,
2013-04-23 08:50:00,50.2,37.7,30.36,East,90,0.0,0.0,62,0.00,,CLR,0.00,VWS V14.00,2013-04-23 15:50:00,
2013-04-23 08:53:00,50.0,37.1,30.36,NNW,338,0.0,0.0,61,0.00,,CLR,0.00,VWS V14.00,2013-04-23 15:53:00,
2013-04-23 08:54:00,50.0,37.1,30.36,NNE,22,0.0,0.0,61,0.00,,CLR,0.00,VWS V14.00,2013-04-23 15:54:00,
2013-04-23 08:55:00,50.2,37.3,30.36,NW,315,0.0,0.0,61,0.00,,CLR,0.00,VWS V14.00,2013-04-23 15:55:00,
2013-04-23 08:58:00,50.2,37.3,30.36,North,0,0.0,0.0,61,0.00,,CLR,0.00,VWS V14.00,2013-04-23 15:58:00,
2013-04-23 08:59:00,50.2,37.3,30.33,NNW,338,0.0,0.0,61,0.00,,CLR,0.00,VWS V14.00,2013-04-23 15:59:00,
2013-04-23 09:00:00,50.2,37.3,30.33,ENE,68,0.0,0.0,61,0.00,,CLR,0.00,VWS V14.00,2013-04-23 16:00:00,
2013-04-23 09:03:00,50.5,37.6,30.33,South,180,0.0,0.0,61,0.00,,CLR,0.00,VWS V14.00,2013-04-23 16:03:00,
2013-04-23 09:04:00,50.9,38.0,30.33,North,0,0.0,0.0,61,0.00,,CLR,0.00,VWS V14.00,2013-04-23 16:04:00,
2013-04-23 09:05:00,50.9,38.0,30.33,NNE,22,0.0,0.0,61,0.00,,CLR,0.00,VWS V14.00,2013-04-23 16:05:00,
2013-04-23 09:08:00,51.3,37.9,30.33,NE,45,0.0,0.0,60,0.00,,CLR,0.00,VWS V14.00,2013-04-23 16:08:00,
2013-04-23 09:09:00,51.6,38.6,30.33,NE,45,0.0,0.0,61,0.00,,CLR,0.00,VWS V14.00,2013-04-23 16:09:00,
2013-04-23 09:10:00,51.6,38.6,30.33,North,0,0.0,0.0,61,0.00,,CLR,0.00,VWS V14.00,2013-04-23 16:10:00,
2013-04-23 09:14:00,51.4,38.5,30.33,ENE,68,0.0,1.1,61,0.00,,CLR,0.00,VWS V14.00,2013-04-23 16:14:00,
2013-04-23 09:15:00,51.4,38.0,30.33,NNW,338,0.0,1.1,60,0.00,,CLR,0.00,VWS V14.00,2013-04-23 16:15:00,
2013-04-23 09:19:00,51.4,38.0,30.33,WNW,292,0.0,2.2,60,0.00,,CLR,0.00,VWS V14.00,2013-04-23 16:19:00,
2013-04-23 09:20:00,51.6,38.2,30.33,ENE,68,0.0,2.2,60,0.00,,CLR,0.00,VWS V14.00,2013-04-23 16:20:00,
2013-04-23 09:24:00,52.2,38.3,30.33,ENE,68,0.0,2.2,59,0.00,,CLR,0.00,VWS V14.00,2013-04-23 16:24:00,
2013-04-23 09:25:00,51.8,37.5,30.33,East,90,0.0,2.2,58,0.00,,CLR,0.00,VWS V14.00,2013-04-23 16:25:00,
2013-04-23 09:29:00,52.3,38.5,30.33,ENE,68,0.0,2.2,59,0.00,,CLR,0.00,VWS V14.00,2013-04-23 16:29:00,
2013-04-23 09:30:00,52.5,38.2,30.33,NW,315,1.3,2.2,58,0.00,,CLR,0.00,VWS V14.00,2013-04-23 16:30:00,
2013-04-23 09:34:00,52.5,38.2,30.33,ENE,68,0.0,2.0,58,0.00,,CLR,0.00,VWS V14.00,2013-04-23 16:34:00,
2013-04-23 09:35:00,52.5,38.2,30.33,NNW,338,0.0,2.0,58,0.00,,CLR,0.00,VWS V14.00,2013-04-23 16:35:00,
2013-04-23 09:39:00,52.7,38.3,30.33,NNE,22,0.0,2.5,58,0.00,,CLR,0.00,VWS V14.00,2013-04-23 16:39:00,
2013-04-23 09:40:00,52.7,38.3,30.33,WSW,248,2.0,2.5,58,0.00,,CLR,0.00,VWS V14.00,2013-04-23 16:40:00,
2013-04-23 09:44:00,53.1,38.2,30.33,NNW,338,0.0,2.5,57,0.00,,CLR,0.00,VWS V14.00,2013-04-23 16:44:00,
2013-04-23 09:45:00,53.1,38.2,30.33,NW,315,0.0,2.5,57,0.00,,CLR,0.00,VWS V14.00,2013-04-23 16:45:00,
2013-04-23 09:49:00,53.2,38.9,30.33,NNW,338,0.0,2.5,58,0.00,,CLR,0.00,VWS V14.00,2013-04-23 16:49:00,
2013-04-23 09:50:00,53.2,38.9,30.33,NNW,338,0.0,2.5,58,0.00,,CLR,0.00,VWS V14.00,2013-04-23 16:50:00,
2013-04-23 09:51:00,53.8,39.8,30.33,ESE,112,1.6,2.5,59,0.00,,CLR,0.00,VWS V14.00,2013-04-23 16:51:00,
2013-04-23 09:54:00,54.0,39.5,30.33,NNE,22,0.0,2.5,58,0.00,,CLR,0.00,VWS V14.00,2013-04-23 16:54:00,
2013-04-23 09:55:00,54.1,40.1,30.33,NNE,22,0.9,2.0,59,0.00,,CLR,0.00,VWS V14.00,2013-04-23 16:55:00,
2013-04-23 09:56:00,54.1,40.1,30.33,NW,315,1.6,2.0,59,0.00,,CLR,0.00,VWS V14.00,2013-04-23 16:56:00,
2013-04-23 09:59:00,54.3,40.3,30.33,ENE,68,1.1,2.0,59,0.00,,CLR,0.00,VWS V14.00,2013-04-23 16:59:00,
2013-04-23 10:00:00,54.1,39.7,30.33,East,90,0.9,2.0,58,0.00,,CLR,0.00,VWS V14.00,2013-04-23 17:00:00,
2013-04-23 10:01:00,54.1,39.7,30.33,East,90,0.9,2.0,58,0.00,,CLR,0.00,VWS V14.00,2013-04-23 17:01:00,
2013-04-23 10:04:00,54.1,39.3,30.33,NNW,338,1.1,2.0,57,0.00,,CLR,0.00,VWS V14.00,2013-04-23 17:04:00,
2013-04-23 10:05:00,53.8,38.9,30.33,East,90,0.0,1.6,57,0.00,,CLR,0.00,VWS V14.00,2013-04-23 17:05:00,
2013-04-23 10:06:00,53.8,38.9,30.33,NW,315,0.0,1.6,57,0.00,,CLR,0.00,VWS V14.00,2013-04-23 17:06:00,
2013-04-23 10:09:00,53.8,38.5,30.33,East,90,0.0,1.6,56,0.00,,CLR,0.00,VWS V14.00,2013-04-23 17:09:00,
2013-04-23 10:10:00,53.8,38.5,30.33,NE,45,1.1,1.6,56,0.00,,CLR,0.00,VWS V14.00,2013-04-23 17:10:00,
2013-04-23 10:11:00,53.8,38.5,30.33,NE,45,1.1,1.6,56,0.00,,CLR,0.00,VWS V14.00,2013-04-23 17:11:00,
2013-04-23 10:14:00,53.8,38.5,30.33,NNW,338,0.0,1.6,56,0.00,,CLR,0.00,VWS V14.00,2013-04-23 17:14:00,
2013-04-23 10:15:00,54.3,39.0,30.33,WNW,292,0.0,1.6,56,0.00,,CLR,0.00,VWS V14.00,2013-04-23 17:15:00,
2013-04-23 10:16:00,54.3,39.0,30.33,NNW,338,2.5,2.5,56,0.00,,CLR,0.00,VWS V14.00,2013-04-23 17:16:00,
2013-04-23 10:19:00,54.3,39.0,30.33,NNW,338,0.9,2.5,56,0.00,,CLR,0.00,VWS V14.00,2013-04-23 17:19:00,
2013-04-23 10:20:00,54.3,39.0,30.33,NNW,338,0.0,2.5,56,0.00,,CLR,0.00,VWS V14.00,2013-04-23 17:20:00,
2013-04-23 10:21:00,54.5,39.6,30.33,NNW,338,0.0,2.5,57,0.00,,CLR,0.00,VWS V14.00,2013-04-23 17:21:00,
2013-04-23 10:24:00,54.5,39.1,30.33,NNW,338,0.9,2.5,56,0.00,,CLR,0.00,VWS V14.00,2013-04-23 17:24:00,
2013-04-23 10:25:00,54.5,39.1,30.33,NNW,338,0.9,2.5,56,0.00,,CLR,0.00,VWS V14.00,2013-04-23 17:25:00,
2013-04-23 10:26:00,54.5,39.1,30.33,NE,45,1.1,2.5,56,0.00,,CLR,0.00,VWS V14.00,2013-04-23 17:26:00,
2013-04-23 10:29:00,54.5,39.1,30.30,NNW,338,0.0,2.5,56,0.00,,CLR,0.00,VWS V14.00,2013-04-23 17:29:00,
2013-04-23 10:30:00,54.5,39.1,30.30,NNW,338,0.0,2.5,56,0.00,,CLR,0.00,VWS V14.00,2013-04-23 17:30:00,
2013-04-23 10:31:00,54.5,39.1,30.30,NW,315,0.0,2.5,56,0.00,,CLR,0.00,VWS V14.00,2013-04-23 17:31:00,
2013-04-23 10:34:00,54.9,39.9,30.30,North,0,0.0,2.0,57,0.00,,CLR,0.00,VWS V14.00,2013-04-23 17:34:00,
2013-04-23 10:35:00,54.9,39.5,30.30,NW,315,2.0,2.0,56,0.00,,CLR,0.00,VWS V14.00,2013-04-23 17:35:00,
2013-04-23 10:36:00,54.9,39.5,30.30,NW,315,2.0,2.0,56,0.00,,CLR,0.00,VWS V14.00,2013-04-23 17:36:00,
2013-04-23 10:39:00,54.5,39.1,30.30,NNW,338,2.0,2.5,56,0.00,,CLR,0.00,VWS V14.00,2013-04-23 17:39:00,
2013-04-23 10:40:00,54.5,39.1,30.30,ENE,68,0.9,2.5,56,0.00,,CLR,0.00,VWS V14.00,2013-04-23 17:40:00,
2013-04-23 10:41:00,54.5,39.1,30.30,ENE,68,0.9,2.5,56,0.00,,CLR,0.00,VWS V14.00,2013-04-23 17:41:00,
2013-04-23 10:44:00,54.5,39.1,30.30,WNW,292,2.0,2.5,56,0.00,,CLR,0.00,VWS V14.00,2013-04-23 17:44:00,
2013-04-23 10:45:00,54.5,39.1,30.30,North,0,0.0,2.5,56,0.00,,CLR,0.00,VWS V14.00,2013-04-23 17:45:00,
2013-04-23 10:46:00,54.5,39.1,30.30,North,0,0.0,2.5,56,0.00,,CLR,0.00,VWS V14.00,2013-04-23 17:46:00,
2013-04-23 10:50:00,54.7,39.3,30.30,North,0,2.0,2.5,56,0.00,,CLR,0.00,VWS V14.00,2013-04-23 17:50:00,
2013-04-23 10:51:00,54.7,39.3,30.30,NNW,338,0.0,2.5,56,0.00,,CLR,0.00,VWS V14.00,2013-04-23 17:51:00,
2013-04-23 10:55:00,55.0,40.5,30.30,NNE,22,0.0,2.0,58,0.00,,CLR,0.00,VWS V14.00,2013-04-23 17:55:00,
2013-04-23 10:56:00,55.0,40.5,30.30,NNE,22,0.0,2.0,58,0.00,,CLR,0.00,VWS V14.00,2013-04-23 17:56:00,
2013-04-23 11:00:00,55.0,39.7,30.30,WNW,292,2.2,2.2,56,0.00,,CLR,0.00,VWS V14.00,2013-04-23 18:00:00,
2013-04-23 11:01:00,55.0,39.7,30.30,NW,315,1.1,2.2,56,0.00,,CLR,0.00,VWS V14.00,2013-04-23 18:01:00,
2013-04-23 11:05:00,55.2,39.8,30.30,NW,315,2.0,2.2,56,0.00,,CLR,0.00,VWS V14.00,2013-04-23 18:05:00,
2013-04-23 11:06:00,55.2,39.8,30.30,NE,45,0.0,2.2,56,0.00,,CLR,0.00,VWS V14.00,2013-04-23 18:06:00,
2013-04-23 11:10:00,55.6,39.7,30.30,WNW,292,0.0,2.2,55,0.00,,CLR,0.00,VWS V14.00,2013-04-23 18:10:00,
2013-04-23 11:11:00,55.6,39.7,30.30,WNW,292,0.0,2.2,55,0.00,,CLR,0.00,VWS V14.00,2013-04-23 18:11:00,
2013-04-23 11:15:00,55.8,39.8,30.27,SSE,158,0.0,2.2,55,0.00,,CLR,0.00,VWS V14.00,2013-04-23 18:15:00,
2013-04-23 11:16:00,55.8,39.8,30.27,ENE,68,0.0,2.2,55,0.00,,CLR,0.00,VWS V14.00,2013-04-23 18:16:00,
2013-04-23 11:17:00,55.8,39.8,30.27,East,90,0.0,2.2,55,0.00,,CLR,0.00,VWS V14.00,2013-04-23 18:17:00,
2013-04-23 11:20:00,56.1,40.7,30.27,WNW,292,0.0,2.2,56,0.00,,CLR,0.00,VWS V14.00,2013-04-23 18:20:00,
2013-04-23 11:21:00,56.1,40.7,30.27,WNW,292,0.0,2.2,56,0.00,,CLR,0.00,VWS V14.00,2013-04-23 18:21:00,
2013-04-23 11:22:00,56.3,40.4,30.27,West,270,1.6,2.2,55,0.00,,CLR,0.00,VWS V14.00,2013-04-23 18:22:00,
2013-04-23 11:25:00,56.5,40.5,30.27,ENE,68,0.0,2.2,55,0.00,,CLR,0.00,VWS V14.00,2013-04-23 18:25:00,
2013-04-23 11:26:00,56.5,40.5,30.27,WNW,292,1.3,2.0,55,0.00,,CLR,0.00,VWS V14.00,2013-04-23 18:26:00,
2013-04-23 11:27:00,56.7,40.7,30.27,WNW,292,1.1,2.0,55,0.00,,CLR,0.00,VWS V14.00,2013-04-23 18:27:00,
2013-04-23 11:30:00,56.8,40.4,30.27,NNW,338,0.0,2.5,54,0.00,,CLR,0.00,VWS V14.00,2013-04-23 18:30:00,
2013-04-23 11:31:00,56.8,40.4,30.27,WNW,292,0.0,2.5,54,0.00,,CLR,0.00,VWS V14.00,2013-04-23 18:31:00,
2013-04-23 11:32:00,57.0,40.6,30.27,WNW,292,0.0,2.5,54,0.00,,CLR,0.00,VWS V14.00,2013-04-23 18:32:00,
2013-04-23 11:35:00,57.2,40.7,30.27,NNW,338,0.0,2.5,54,0.00,,CLR,0.00,VWS V14.00,2013-04-23 18:35:00,
2013-04-23 11:36:00,57.2,40.7,30.27,NNW,338,0.0,2.5,54,0.00,,CLR,0.00,VWS V14.00,2013-04-23 18:36:00,
2013-04-23 11:37:00,57.4,40.9,30.27,NW,315,0.0,2.5,54,0.00,,CLR,0.00,VWS V14.00,2013-04-23 18:37:00,
2013-04-23 11:40:00,57.4,39.9,30.27,NW,315,1.6,2.5,52,0.00,,CLR,0.00,VWS V14.00,2013-04-23 18:40:00,
2013-04-23 11:41:00,57.4,39.9,30.27,NNW,338,0.9,2.5,52,0.00,,CLR,0.00,VWS V14.00,2013-04-23 18:41:00,
2013-04-23 11:42:00,57.4,39.9,30.27,NNW,338,0.0,2.5,52,0.00,,CLR,0.00,VWS V14.00,2013-04-23 18:42:00,
2013-04-23 11:45:00,57.7,40.2,30.27,WNW,292,0.0,2.0,52,0.00,,CLR,0.00,VWS V14.00,2013-04-23 18:45:00,
2013-04-23 11:46:00,57.9,40.4,30.27,WNW,292,0.0,2.0,52,0.00,,CLR,0.00,VWS V14.00,2013-04-23 18:46:00,
2013-04-23 11:47:00,57.9,40.4,30.27,NNW,338,0.0,2.0,52,0.00,,CLR,0.00,VWS V14.00,2013-04-23 18:47:00,
2013-04-23 11:50:00,57.9,40.4,30.27,ENE,68,1.1,2.0,52,0.00,,CLR,0.00,VWS V14.00,2013-04-23 18:50:00,
2013-04-23 11:51:00,57.9,39.9,30.27,NNW,338,0.0,2.0,51,0.00,,CLR,0.00,VWS V14.00,2013-04-23 18:51:00,
2013-04-23 11:52:00,57.9,39.9,30.27,NNW,338,0.0,2.0,51,0.00,,CLR,0.00,VWS V14.00,2013-04-23 18:52:00,
2013-04-23 11:55:00,58.1,40.1,30.27,NW,315,0.0,2.0,51,0.00,,CLR,0.00,VWS V14.00,2013-04-23 18:55:00,
2013-04-23 11:56:00,58.1,40.1,30.27,NW,315,0.0,2.0,51,0.00,,CLR,0.00,VWS V14.00,2013-04-23 18:56:00,
2013-04-23 11:57:00,58.5,40.4,30.27,WNW,292,1.1,1.6,51,0.00,,CLR,0.00,VWS V14.00,2013-04-23 18:57:00,
2013-04-23 12:00:00,58.5,40.4,30.27,WNW,292,0.0,2.2,51,0.00,,CLR,0.00,VWS V14.00,2013-04-23 19:00:00,
2013-04-23 12:01:00,58.5,40.4,30.27,NNW,338,0.0,2.2,51,0.00,,CLR,0.00,VWS V14.00,2013-04-23 19:01:00,
2013-04-23 12:02:00,58.5,39.9,30.27,North,0,0.0,2.2,50,0.00,,CLR,0.00,VWS V14.00,2013-04-23 19:02:00,
2013-04-23 12:05:00,58.8,40.2,30.27,NNE,22,0.0,2.2,50,0.00,,CLR,0.00,VWS V14.00,2013-04-23 19:05:00,
2013-04-23 12:06:00,58.8,40.2,30.27,WNW,292,0.0,2.2,50,0.00,,CLR,0.00,VWS V14.00,2013-04-23 19:06:00,
2013-04-23 12:07:00,59.0,40.4,30.27,NNW,338,0.0,2.2,50,0.00,,CLR,0.00,VWS V14.00,2013-04-23 19:07:00,
2013-04-23 12:10:00,59.0,39.9,30.27,WNW,292,0.0,2.2,49,0.00,,CLR,0.00,VWS V14.00,2013-04-23 19:10:00,
2013-04-23 12:11:00,59.0,39.9,30.27,WNW,292,0.0,2.2,49,0.00,,CLR,0.00,VWS V14.00,2013-04-23 19:11:00,
2013-04-23 12:12:00,59.0,39.9,30.27,WNW,292,0.9,2.2,49,0.00,,CLR,0.00,VWS V14.00,2013-04-23 19:12:00,
2013-04-23 12:15:00,59.4,40.2,30.27,WNW,292,0.0,2.2,49,0.00,,CLR,0.00,VWS V14.00,2013-04-23 19:15:00,
2013-04-23 12:16:00,59.4,40.2,30.27,NNW,338,0.0,2.2,49,0.00,,CLR,0.00,VWS V14.00,2013-04-23 19:16:00,
2013-04-23 12:17:00,59.4,40.2,30.27,NW,315,1.1,2.2,49,0.00,,CLR,0.00,VWS V14.00,2013-04-23 19:17:00,
2013-04-23 12:20:00,59.4,39.7,30.27,West,270,2.5,2.5,48,0.00,,CLR,0.00,VWS V14.00,2013-04-23 19:20:00,
2013-04-23 12:21:00,59.5,39.8,30.27,WNW,292,0.0,2.5,48,0.00,,CLR,0.00,VWS V14.00,2013-04-23 19:21:00,
2013-04-23 12:22:00,59.5,39.8,30.27,WNW,292,0.9,2.5,48,0.00,,CLR,0.00,VWS V14.00,2013-04-23 19:22:00,
2013-04-23 12:26:00,59.7,40.0,30.27,East,90,1.3,2.5,48,0.00,,CLR,0.00,VWS V14.00,2013-04-23 19:26:00,
2013-04-23 12:27:00,59.7,40.5,30.27,East,90,1.3,2.5,49,0.00,,CLR,0.00,VWS V14.00,2013-04-23 19:27:00,
2013-04-23 12:31:00,59.7,40.0,30.24,WSW,248,2.9,2.9,48,0.00,,CLR,0.00,VWS V14.00,2013-04-23 19:31:00,
2013-04-23 12:32:00,59.5,39.8,30.24,WSW,248,2.0,2.9,48,0.00,,CLR,0.00,VWS V14.00,2013-04-23 19:32:00,
2013-04-23 12:36:00,59.9,40.2,30.24,East,90,2.2,2.9,48,0.00,,CLR,0.00,VWS V14.00,2013-04-23 19:36:00,
2013-04-23 12:37:00,59.9,40.2,30.24,East,90,2.2,2.9,48,0.00,,CLR,0.00,VWS V14.00,2013-04-23 19:37:00,
2013-04-23 12:41:00,60.3,40.5,30.24,West,270,0.0,2.2,48,0.00,,CLR,0.00,VWS V14.00,2013-04-23 19:41:00,
2013-04-23 12:42:00,60.3,40.5,30.24,North,0,0.0,2.2,48,0.00,,CLR,0.00,VWS V14.00,2013-04-23 19:42:00,
2013-04-23 12:43:00,60.4,41.2,30.24,North,0,0.0,0.0,49,0.00,,CLR,0.00,VWS V14.00,2013-04-23 19:43:00,
2013-04-23 12:46:00,61.0,40.6,30.24,NNE,22,0.0,1.6,47,0.00,,CLR,0.00,VWS V14.00,2013-04-23 19:46:00,
2013-04-23 12:47:00,61.0,40.6,30.24,ENE,68,2.2,2.2,47,0.00,,CLR,0.00,VWS V14.00,2013-04-23 19:47:00,
2013-04-23 12:48:00,60.8,40.5,30.24,NE,45,1.1,2.2,47,0.00,,CLR,0.00,VWS V14.00,2013-04-23 19:48:00,
2013-04-23 12:51:00,60.6,40.3,30.24,WNW,292,0.0,2.9,47,0.00,,CLR,0.00,VWS V14.00,2013-04-23 19:51:00,
2013-04-23 12:52:00,60.6,40.3,30.24,WNW,292,2.9,2.9,47,0.00,,CLR,0.00,VWS V14.00,2013-04-23 19:52:00,
2013-04-23 12:53:00,60.4,40.1,30.24,NNE,22,0.0,2.9,47,0.00,,CLR,0.00,VWS V14.00,2013-04-23 19:53:00,
2013-04-23 12:56:00,60.6,39.8,30.24,ENE,68,0.9,2.9,46,0.00,,CLR,0.00,VWS V14.00,2013-04-23 19:56:00,
2013-04-23 12:57:00,60.6,39.8,30.24,ENE,68,0.9,2.9,46,0.00,,CLR,0.00,VWS V14.00,2013-04-23 19:57:00,
2013-04-23 12:58:00,60.6,39.8,30.24,WNW,292,0.9,2.9,46,0.00,,CLR,0.00,VWS V14.00,2013-04-23 19:58:00,
2013-04-23 13:01:00,61.0,39.5,30.24,East,90,1.6,2.0,45,0.00,,CLR,0.00,VWS V14.00,2013-04-23 20:01:00,
2013-04-23 13:02:00,61.2,39.7,30.24,WSW,248,2.9,2.9,45,0.00,,CLR,0.00,VWS V14.00,2013-04-23 20:02:00,
2013-04-23 13:03:00,61.2,39.7,30.24,WSW,248,2.9,2.9,45,0.00,,CLR,0.00,VWS V14.00,2013-04-23 20:03:00,
2013-04-23 13:06:00,61.2,40.2,30.24,NNW,338,0.0,2.9,46,0.00,,CLR,0.00,VWS V14.00,2013-04-23 20:06:00,
2013-04-23 13:07:00,61.2,39.7,30.24,NNW,338,2.2,2.9,45,0.00,,CLR,0.00,VWS V14.00,2013-04-23 20:07:00,
2013-04-23 13:08:00,61.2,39.7,30.24,NE,45,0.9,2.9,45,0.00,,CLR,0.00,VWS V14.00,2013-04-23 20:08:00,
2013-04-23 13:11:00,61.3,39.3,30.24,NW,315,0.9,2.9,44,0.00,,CLR,0.00,VWS V14.00,2013-04-23 20:11:00,
2013-04-23 13:12:00,61.3,39.3,30.24,NNW,338,0.9,2.9,44,0.00,,CLR,0.00,VWS V14.00,2013-04-23 20:12:00,
2013-04-23 13:13:00,61.7,39.6,30.24,WNW,292,3.4,3.4,44,0.00,,CLR,0.00,VWS V14.00,2013-04-23 20:13:00,
2013-04-23 13:16:00,61.7,39.0,30.24,WNW,292,1.3,3.4,43,0.00,,CLR,0.00,VWS V14.00,2013-04-23 20:16:00,
2013-04-23 13:17:00,61.7,39.0,30.24,WNW,292,1.3,3.4,43,0.00,,CLR,0.00,VWS V14.00,2013-04-23 20:17:00,
2013-04-23 13:18:00,61.9,39.2,30.24,NNW,338,1.1,3.4,43,0.00,,CLR,0.00,VWS V14.00,2013-04-23 20:18:00,
2013-04-23 13:21:00,62.1,38.7,30.24,NNW,338,3.1,3.4,42,0.00,,CLR,0.00,VWS V14.00,2013-04-23 20:21:00,
2013-04-23 13:22:00,62.1,38.7,30.24,East,90,2.7,3.4,42,0.00,,CLR,0.00,VWS V14.00,2013-04-23 20:22:00,
2013-04-23 13:23:00,62.2,38.3,30.24,NNW,338,2.5,3.4,41,0.00,,CLR,0.00,VWS V14.00,2013-04-23 20:23:00,
2013-04-23 13:24:00,62.2,38.3,30.24,NW,315,2.7,3.4,41,0.00,,CLR,0.00,VWS V14.00,2013-04-23 20:24:00,
2013-04-23 13:26:00,62.2,38.3,30.24,NW,315,2.2,3.4,41,0.00,,CLR,0.00,VWS V14.00,2013-04-23 20:26:00,
2013-04-23 13:27:00,62.2,38.3,30.24,NW,315,2.2,3.4,41,0.00,,CLR,0.00,VWS V14.00,2013-04-23 20:27:00,
2013-04-23 13:28:00,62.2,38.3,30.24,NE,45,0.0,3.4,41,0.00,,CLR,0.00,VWS V14.00,2013-04-23 20:28:00,
2013-04-23 13:29:00,62.2,38.3,30.24,WNW,292,1.3,3.4,41,0.00,,CLR,0.00,VWS V14.00,2013-04-23 20:29:00,
2013-04-23 13:32:00,62.6,38.0,30.24,WNW,292,2.2,3.1,40,0.00,,CLR,0.00,VWS V14.00,2013-04-23 20:32:00,
2013-04-23 13:33:00,62.6,38.0,30.24,NNE,22,1.1,6.0,40,0.00,,CLR,0.00,VWS V14.00,2013-04-23 20:33:00,
2013-04-23 13:34:00,62.6,38.0,30.24,NNE,22,1.1,6.0,40,0.00,,CLR,0.00,VWS V14.00,2013-04-23 20:34:00,
2013-04-23 13:37:00,63.0,38.3,30.24,NE,45,3.1,6.0,40,0.00,,CLR,0.00,VWS V14.00,2013-04-23 20:37:00,
2013-04-23 13:38:00,63.3,38.6,30.24,WNW,292,6.9,6.9,40,0.00,,CLR,0.00,VWS V14.00,2013-04-23 20:38:00,
2013-04-23 13:39:00,63.1,37.8,30.24,WNW,292,3.6,6.9,39,0.00,,CLR,0.00,VWS V14.00,2013-04-23 20:39:00,
2013-04-23 13:42:00,63.0,37.6,30.24,NNW,338,2.2,6.9,39,0.00,,CLR,0.00,VWS V14.00,2013-04-23 20:42:00,
2013-04-23 13:43:00,62.8,37.5,30.24,East,90,3.4,6.9,39,0.00,,CLR,0.00,VWS V14.00,2013-04-23 20:43:00,
2013-04-23 13:44:00,63.0,38.3,30.21,ENE,68,2.9,6.9,40,0.00,,CLR,0.00,VWS V14.00,2013-04-23 20:44:00,
2013-04-23 13:47:00,63.0,37.6,30.21,West,270,2.9,6.9,39,0.00,,CLR,0.00,VWS V14.00,2013-04-23 20:47:00,
2013-04-23 13:48:00,63.0,37.6,30.21,NE,45,2.9,6.9,39,0.00,,CLR,0.00,VWS V14.00,2013-04-23 20:48:00,
2013-04-23 13:49:00,63.0,37.6,30.21,NW,315,0.0,6.9,39,0.00,,CLR,0.00,VWS V14.00,2013-04-23 20:49:00,
2013-04-23 13:52:00,63.1,37.8,30.21,North,0,0.0,6.9,39,0.00,,CLR,0.00,VWS V14.00,2013-04-23 20:52:00,
2013-04-23 13:53:00,63.1,37.8,30.21,North,0,0.0,6.9,39,0.00,,CLR,0.00,VWS V14.00,2013-04-23 20:53:00,
2013-04-23 13:54:00,63.1,37.8,30.21,WNW,292,0.9,6.9,39,0.00,,CLR,0.00,VWS V14.00,2013-04-23 20:54:00,
2013-04-23 13:57:00,63.0,37.6,30.21,WNW,292,3.1,4.3,39,0.00,,CLR,0.00,VWS V14.00,2013-04-23 20:57:00,
2013-04-23 13:58:00,63.0,37.6,30.21,NW,315,2.0,4.3,39,0.00,,CLR,0.00,VWS V14.00,2013-04-23 20:58:00,
2013-04-23 13:59:00,63.1,37.8,30.21,West,270,2.7,4.3,39,0.00,,CLR,0.00,VWS V14.00,2013-04-23 20:59:00,
2013-04-23 14:02:00,63.3,38.0,30.21,NNW,338,1.1,3.1,39,0.00,,CLR,0.00,VWS V14.00,2013-04-23 21:02:00,
2013-04-23 14:03:00,63.3,38.0,30.21,NNW,338,1.1,3.1,39,0.00,,CLR,0.00,VWS V14.00,2013-04-23 21:03:00,
2013-04-23 14:04:00,63.5,38.1,30.21,NE,45,1.1,3.1,39,0.00,,CLR,0.00,VWS V14.00,2013-04-23 21:04:00,
2013-04-23 14:07:00,63.7,37.6,30.21,WNW,292,3.1,3.6,38,0.00,,CLR,0.00,VWS V14.00,2013-04-23 21:07:00,
2013-04-23 14:08:00,63.7,37.6,30.21,WNW,292,3.1,3.6,38,0.00,,CLR,0.00,VWS V14.00,2013-04-23 21:08:00,
2013-04-23 14:09:00,63.9,38.5,30.21,NNW,338,1.3,3.6,39,0.00,,CLR,0.00,VWS V14.00,2013-04-23 21:09:00,
2013-04-23 14:12:00,63.9,38.5,30.21,WNW,292,1.1,3.6,39,0.00,,CLR,0.00,VWS V14.00,2013-04-23 21:12:00,
2013-04-23 14:13:00,63.9,38.5,30.21,NNW,338,1.6,3.6,39,0.00,,CLR,0.00,VWS V14.00,2013-04-23 21:13:00,
2013-04-23 14:14:00,63.9,37.8,30.21,NNW,338,2.2,3.6,38,0.00,,CLR,0.00,VWS V14.00,2013-04-23 21:14:00,
2013-04-23 14:17:00,63.7,37.6,30.21,NNW,338,2.0,3.6,38,0.00,,CLR,0.00,VWS V14.00,2013-04-23 21:17:00,
2013-04-23 14:18:00,63.9,37.8,30.21,NNW,338,3.8,3.8,38,0.00,,CLR,0.00,VWS V14.00,2013-04-23 21:18:00,
2013-04-23 14:19:00,63.9,37.8,30.21,NNW,338,3.8,3.8,38,0.00,,CLR,0.00,VWS V14.00,2013-04-23 21:19:00,
2013-04-23 14:22:00,63.9,37.8,30.21,ENE,68,2.7,3.8,38,0.00,,CLR,0.00,VWS V14.00,2013-04-23 21:22:00,
2013-04-23 14:23:00,63.9,37.8,30.21,ENE,68,2.7,3.8,38,0.00,,CLR,0.00,VWS V14.00,2013-04-23 21:23:00,
2013-04-23 14:24:00,63.9,37.8,30.21,ENE,68,3.4,3.8,38,0.00,,CLR,0.00,VWS V14.00,2013-04-23 21:24:00,
2013-04-23 14:27:00,64.2,38.1,30.21,NW,315,2.7,3.8,38,0.00,,CLR,0.00,VWS V14.00,2013-04-23 21:27:00,
2013-04-23 14:28:00,64.2,38.1,30.21,NW,315,2.9,3.8,38,0.00,,CLR,0.00,VWS V14.00,2013-04-23 21:28:00,
2013-04-23 14:29:00,64.2,38.1,30.21,WNW,292,2.0,3.8,38,0.00,,CLR,0.00,VWS V14.00,2013-04-23 21:29:00,
2013-04-23 14:32:00,64.2,38.1,30.21,NNW,338,2.7,3.8,38,0.00,,CLR,0.00,VWS V14.00,2013-04-23 21:32:00,
2013-04-23 14:33:00,64.2,38.1,30.21,NNW,338,2.0,3.8,38,0.00,,CLR,0.00,VWS V14.00,2013-04-23 21:33:00,
2013-04-23 14:35:00,64.2,38.1,30.21,NW,315,0.9,3.8,38,0.00,,CLR,0.00,VWS V14.00,2013-04-23 21:35:00,
2013-04-23 14:37:00,64.2,38.1,30.21,West,270,2.7,3.8,38,0.00,,CLR,0.00,VWS V14.00,2013-04-23 21:37:00,
2013-04-23 14:38:00,64.2,38.1,30.21,NW,315,2.0,3.4,38,0.00,,CLR,0.00,VWS V14.00,2013-04-23 21:38:00,
2013-04-23 14:40:00,64.2,38.1,30.21,NNW,338,2.5,3.4,38,0.00,,CLR,0.00,VWS V14.00,2013-04-23 21:40:00,
2013-04-23 14:42:00,64.0,37.3,30.21,WSW,248,2.5,3.6,37,0.00,,CLR,0.00,VWS V14.00,2013-04-23 21:42:00,
2013-04-23 14:43:00,64.0,37.3,30.21,WSW,248,2.5,3.6,37,0.00,,CLR,0.00,VWS V14.00,2013-04-23 21:43:00,
2013-04-23 14:44:00,64.0,37.3,30.21,WNW,292,4.9,4.9,37,0.00,,CLR,0.00,VWS V14.00,2013-04-23 21:44:00,
2013-04-23 14:45:00,63.9,37.1,30.21,NNW,338,2.0,4.9,37,0.00,,CLR,0.00,VWS V14.00,2013-04-23 21:45:00,
2013-04-23 14:47:00,63.9,37.1,30.21,NNW,338,3.4,4.9,37,0.00,,CLR,0.00,VWS V14.00,2013-04-23 21:47:00,
2013-04-23 14:48:00,63.9,37.1,30.21,NNW,338,3.4,4.9,37,0.00,,CLR,0.00,VWS V14.00,2013-04-23 21:48:00,
2013-04-23 14:49:00,63.9,37.1,30.21,WSW,248,2.5,4.9,37,0.00,,BKN100,0.00,VWS V14.00,2013-04-23 21:49:00,
2013-04-23 14:50:00,63.9,37.1,30.21,WNW,292,3.4,4.9,37,0.00,,BKN100,0.00,VWS V14.00,2013-04-23 21:50:00,
2013-04-23 14:52:00,63.9,37.1,30.21,NNW,338,2.5,4.9,37,0.00,,BKN100,0.00,VWS V14.00,2013-04-23 21:52:00,
2013-04-23 14:53:00,63.9,37.1,30.21,NNW,338,2.5,4.9,37,0.00,,BKN100,0.00,VWS V14.00,2013-04-23 21:53:00,
2013-04-23 14:54:00,64.0,37.3,30.21,NW,315,2.2,4.9,37,0.00,,BKN100,0.00,VWS V14.00,2013-04-23 21:54:00,
2013-04-23 14:55:00,64.0,37.3,30.21,NNE,22,1.3,4.9,37,0.00,,BKN100,0.00,VWS V14.00,2013-04-23 21:55:00,
2013-04-23 14:57:00,64.0,37.3,30.21,North,0,0.0,4.9,37,0.00,,BKN100,0.00,VWS V14.00,2013-04-23 21:57:00,
2013-04-23 14:58:00,64.0,37.3,30.21,North,0,0.0,4.9,37,0.00,,BKN100,0.00,VWS V14.00,2013-04-23 21:58:00,
2013-04-23 14:59:00,64.2,37.4,30.18,NNE,22,4.7,4.9,37,0.00,,BKN100,0.00,VWS V14.00,2013-04-23 21:59:00,
2013-04-23 15:00:00,64.0,37.3,30.18,NE,45,2.7,4.7,37,0.00,,BKN100,0.00,VWS V14.00,2013-04-23 22:00:00,
2013-04-23 15:03:00,64.2,37.4,30.18,WNW,292,2.9,4.7,37,0.00,,BKN100,0.00,VWS V14.00,2013-04-23 22:03:00,
2013-04-23 15:04:00,64.2,37.4,30.18,NW,315,0.0,4.7,37,0.00,,BKN100,0.00,VWS V14.00,2013-04-23 22:04:00,
2013-04-23 15:05:00,64.2,37.4,30.18,WNW,292,0.0,4.7,37,0.00,,BKN100,0.00,VWS V14.00,2013-04-23 22:05:00,
2013-04-23 15:08:00,64.2,37.4,30.18,WNW,292,2.7,4.7,37,0.00,,BKN100,0.00,VWS V14.00,2013-04-23 22:08:00,
2013-04-23 15:09:00,64.2,37.4,30.18,NW,315,2.7,4.7,37,0.00,,BKN100,0.00,VWS V14.00,2013-04-23 22:09:00,
2013-04-23 15:10:00,64.2,37.4,30.18,WNW,292,2.2,4.7,37,0.00,,BKN100,0.00,VWS V14.00,2013-04-23 22:10:00,
2013-04-23 15:13:00,64.2,37.4,30.18,NNW,338,4.7,4.7,37,0.00,,BKN100,0.00,VWS V14.00,2013-04-23 22:13:00,
2013-04-23 15:14:00,64.2,37.4,30.18,NE,45,2.2,4.7,37,0.00,,BKN100,0.00,VWS V14.00,2013-04-23 22:14:00,
2013-04-23 15:15:00,64.2,37.4,30.18,WNW,292,1.6,4.7,37,0.00,,BKN100,0.00,VWS V14.00,2013-04-23 22:15:00,
2013-04-23 15:18:00,64.6,37.8,30.18,WNW,292,2.2,4.7,37,0.00,,BKN100,0.00,VWS V14.00,2013-04-23 22:18:00,
2013-04-23 15:19:00,64.6,37.8,30.18,ENE,68,0.0,4.7,37,0.00,,BKN100,0.00,VWS V14.00,2013-04-23 22:19:00,
2013-04-23 15:20:00,64.8,37.9,30.18,NNW,338,0.0,4.7,37,0.00,,BKN100,0.00,VWS V14.00,2013-04-23 22:20:00,
2013-04-23 15:23:00,64.9,38.1,30.18,WSW,248,0.0,4.7,37,0.00,,BKN100,0.00,VWS V14.00,2013-04-23 22:23:00,
2013-04-23 15:24:00,64.9,38.1,30.18,WSW,248,0.0,4.7,37,0.00,,BKN100,0.00,VWS V14.00,2013-04-23 22:24:00,
2013-04-23 15:25:00,65.3,38.4,30.18,NNW,338,3.4,4.7,37,0.00,,BKN100,0.00,VWS V14.00,2013-04-23 22:25:00,
2013-04-23 15:28:00,65.3,37.7,30.18,WNW,292,2.0,4.7,36,0.00,,BKN100,0.00,VWS V14.00,2013-04-23 22:28:00,
2013-04-23 15:29:00,65.3,37.7,30.18,NW,315,1.6,4.7,36,0.00,,BKN100,0.00,VWS V14.00,2013-04-23 22:29:00,
2013-04-23 15:30:00,65.7,38.7,30.18,NNE,22,2.5,4.7,37,0.00,,BKN100,0.00,VWS V14.00,2013-04-23 22:30:00,
2013-04-23 15:33:00,65.8,38.9,30.18,East,90,1.6,3.4,37,0.00,,SCT090,0.00,VWS V14.00,2013-04-23 22:33:00,
2013-04-23 15:34:00,66.0,38.3,30.18,NNW,338,4.3,4.3,36,0.00,,SCT090,0.00,VWS V14.00,2013-04-23 22:34:00,
2013-04-23 15:35:00,66.2,38.5,30.18,NW,315,1.3,4.3,36,0.00,,SCT090,0.00,VWS V14.00,2013-04-23 22:35:00,
2013-04-23 15:38:00,66.2,38.5,30.18,North,0,2.9,4.3,36,0.00,,SCT090,0.00,VWS V14.00,2013-04-23 22:38:00,
2013-04-23 15:39:00,66.2,38.5,30.18,NW,315,1.1,4.3,36,0.00,,SCT090,0.00,VWS V14.00,2013-04-23 22:39:00,
2013-04-23 15:40:00,66.2,38.5,30.18,NW,315,2.5,4.3,36,0.00,,SCT090,0.00,VWS V14.00,2013-04-23 22:40:00,
2013-04-23 15:43:00,66.2,38.5,30.18,NNE,22,2.0,4.3,36,0.00,,SCT090,0.00,VWS V14.00,2013-04-23 22:43:00,
2013-04-23 15:44:00,66.0,38.3,30.18,West,270,1.6,4.3,36,0.00,,SCT090,0.00,VWS V14.00,2013-04-23 22:44:00,
2013-04-23 15:45:00,66.0,38.3,30.18,West,270,1.6,4.3,36,0.00,,SCT090,0.00,VWS V14.00,2013-04-23 22:45:00,
2013-04-23 15:48:00,65.7,38.0,30.18,WNW,292,3.4,4.3,36,0.00,,SCT090,0.00,VWS V14.00,2013-04-23 22:48:00,
2013-04-23 15:49:00,65.7,38.0,30.18,WNW,292,0.0,4.3,36,0.00,,BKN090,0.00,VWS V14.00,2013-04-23 22:49:00,
2013-04-23 15:50:00,65.7,38.0,30.18,West,270,2.5,4.3,36,0.00,,BKN090,0.00,VWS V14.00,2013-04-23 22:50:00,
2013-04-23 15:53:00,65.3,37.7,30.18,NW,315,1.6,3.6,36,0.00,,BKN090,0.00,VWS V14.00,2013-04-23 22:53:00,
2013-04-23 15:54:00,65.3,37.7,30.18,WNW,292,1.6,3.6,36,0.00,,BKN090,0.00,VWS V14.00,2013-04-23 22:54:00,
2013-04-23 15:56:00,65.1,37.5,30.18,WNW,292,1.6,3.6,36,0.00,,BKN090,0.00,VWS V14.00,2013-04-23 22:56:00,
2013-04-23 15:58:00,65.1,37.5,30.18,NW,315,1.6,3.6,36,0.00,,BKN090,0.00,VWS V14.00,2013-04-23 22:58:00,
2013-04-23 15:59:00,64.9,37.4,30.15,NW,315,1.1,3.6,36,0.00,,BKN090,0.00,VWS V14.00,2013-04-23 22:59:00,
2013-04-23 16:01:00,64.9,37.4,30.15,NNW,338,0.0,3.6,36,0.00,,BKN090,0.00,VWS V14.00,2013-04-23 23:01:00,
2013-04-23 16:03:00,65.1,38.2,30.15,ENE,68,0.0,3.6,37,0.00,,BKN090,0.00,VWS V14.00,2013-04-23 23:03:00,
2013-04-23 16:04:00,65.1,38.2,30.15,ENE,68,0.0,3.6,37,0.00,,BKN090,0.00,VWS V14.00,2013-04-23 23:04:00,
2013-04-23 16:06:00,64.8,37.9,30.15,WSW,248,0.9,3.6,37,0.00,,BKN090,0.00,VWS V14.00,2013-04-23 23:06:00,
2013-04-23 16:08:00,64.9,38.1,30.15,WNW,292,2.0,2.5,37,0.00,,BKN090,0.00,VWS V14.00,2013-04-23 23:08:00,
2013-04-23 16:09:00,64.8,37.2,30.15,NNW,338,1.3,2.5,36,0.00,,BKN090,0.00,VWS V14.00,2013-04-23 23:09:00,
2013-04-23 16:11:00,64.6,37.0,30.15,WNW,292,2.5,2.5,36,0.00,,BKN090,0.00,VWS V14.00,2013-04-23 23:11:00,
2013-04-23 16:14:00,64.6,37.0,30.15,NE,45,3.1,3.1,36,0.00,,BKN090,0.00,VWS V14.00,2013-04-23 23:14:00,
2013-04-23 16:16:00,64.6,37.0,30.15,NNE,22,2.9,3.1,36,0.00,,BKN090,0.00,VWS V14.00,2013-04-23 23:16:00,
2013-04-23 16:19:00,64.4,36.9,30.15,NNW,338,3.1,3.1,36,0.00,,BKN090,0.00,VWS V14.00,2013-04-23 23:19:00,
2013-04-23 16:20:00,64.4,36.9,30.15,NNW,338,3.4,3.4,36,0.00,,BKN090,0.00,VWS V14.00,2013-04-23 23:20:00,
2013-04-23 16:21:00,64.2,36.7,30.15,NNE,22,3.1,3.4,36,0.00,,BKN090,0.00,VWS V14.00,2013-04-23 23:21:00,
2013-04-23 16:24:00,64.2,36.7,30.15,North,0,2.0,4.9,36,0.00,,BKN090,0.00,VWS V14.00,2013-04-23 23:24:00,
2013-04-23 16:25:00,64.2,36.7,30.15,NE,45,2.5,4.9,36,0.00,,BKN090,0.00,VWS V14.00,2013-04-23 23:25:00,
2013-04-23 16:26:00,64.2,36.7,30.15,WNW,292,2.5,4.9,36,0.00,,BKN090,0.00,VWS V14.00,2013-04-23 23:26:00,
2013-04-23 16:29:00,64.2,36.7,30.15,WNW,292,1.3,4.9,36,0.00,,BKN090,0.00,VWS V14.00,2013-04-23 23:29:00,
2013-04-23 16:30:00,64.2,36.7,30.15,WNW,292,2.7,4.9,36,0.00,,BKN090,0.00,VWS V14.00,2013-04-23 23:30:00,
2013-04-23 16:31:00,64.2,36.7,30.15,East,90,2.9,4.9,36,0.00,,BKN090,0.00,VWS V14.00,2013-04-23 23:31:00,
2013-04-23 16:34:00,64.2,36.7,30.15,NNW,338,2.9,4.9,36,0.00,,FEW090,0.00,VWS V14.00,2013-04-23 23:34:00,
2013-04-23 16:35:00,64.2,36.7,30.15,WNW,292,0.0,4.9,36,0.00,,FEW090,0.00,VWS V14.00,2013-04-23 23:35:00,
2013-04-23 16:37:00,64.2,36.7,30.15,NW,315,4.3,4.9,36,0.00,,FEW090,0.00,VWS V14.00,2013-04-23 23:37:00,
2013-04-23 16:39:00,64.0,36.6,30.15,NE,45,0.0,4.3,36,0.00,,FEW090,0.00,VWS V14.00,2013-04-23 23:39:00,
2013-04-23 16:40:00,64.0,36.6,30.15,NE,45,0.0,4.3,36,0.00,,FEW090,0.00,VWS V14.00,2013-04-23 23:40:00,
2013-04-23 16:42:00,64.0,36.6,30.15,WNW,292,1.3,4.3,36,0.00,,FEW090,0.00,VWS V14.00,2013-04-23 23:42:00,
2013-04-23 16:44:00,64.0,36.6,30.15,WNW,292,1.1,4.3,36,0.00,,FEW090,0.00,VWS V14.00,2013-04-23 23:44:00,
2013-04-23 16:45:00,64.0,36.6,30.15,NNW,338,2.5,4.3,36,0.00,,FEW090,0.00,VWS V14.00,2013-04-23 23:45:00,
2013-04-23 16:47:00,64.0,37.3,30.15,NW,315,2.5,4.3,37,0.00,,FEW090,0.00,VWS V14.00,2013-04-23 23:47:00,
2013-04-23 16:49:00,64.2,37.4,30.15,WNW,292,2.2,4.3,37,0.00,,CLR,0.00,VWS V14.00,2013-04-23 23:49:00,
2013-04-23 16:50:00,64.2,37.4,30.15,WNW,292,2.2,4.3,37,0.00,,CLR,0.00,VWS V14.00,2013-04-23 23:50:00,
2013-04-23 16:52:00,64.2,36.7,30.15,NW,315,1.6,4.3,36,0.00,,CLR,0.00,VWS V14.00,2013-04-23 23:52:00,
2013-04-23 16:54:00,64.0,36.6,30.15,NNW,338,2.2,4.3,36,0.00,,CLR,0.00,VWS V14.00,2013-04-23 23:54:00,
2013-04-23 16:55:00,63.9,36.4,30.15,NNW,338,2.5,4.3,36,0.00,,CLR,0.00,VWS V14.00,2013-04-23 23:55:00,
2013-04-23 16:57:00,63.9,37.1,30.15,NW,315,0.0,2.5,37,0.00,,CLR,0.00,VWS V14.00,2013-04-23 23:57:00,
2013-04-23 16:59:00,64.0,37.3,30.15,NNW,338,0.0,2.5,37,0.00,,CLR,0.00,VWS V14.00,2013-04-23 23:59:00,
2013-04-23 17:00:00,64.0,37.3,30.15,NNW,338,0.0,2.5,37,0.00,,CLR,0.00,VWS V14.00,2013-04-24 00:00:00,
2013-04-23 17:01:00,64.0,37.3,30.15,NNE,22,1.6,2.5,37,0.00,,CLR,0.00,VWS V14.00,2013-04-24 00:01:00,
2013-04-23 17:02:00,64.0,37.3,30.15,WSW,248,1.3,2.5,37,0.00,,CLR,0.00,VWS V14.00,2013-04-24 00:02:00,
2013-04-23 17:04:00,63.9,37.1,30.15,NW,315,3.1,3.1,37,0.00,,CLR,0.00,VWS V14.00,2013-04-24 00:04:00,
2013-04-23 17:05:00,63.9,37.1,30.15,NNW,338,0.0,3.1,37,0.00,,CLR,0.00,VWS V14.00,2013-04-24 00:05:00,
2013-04-23 17:06:00,64.0,37.3,30.15,ENE,68,0.0,3.1,37,0.00,,CLR,0.00,VWS V14.00,2013-04-24 00:06:00,
2013-04-23 17:07:00,64.0,37.3,30.15,NNW,338,2.2,3.1,37,0.00,,CLR,0.00,VWS V14.00,2013-04-24 00:07:00,
2013-04-23 17:09:00,64.0,36.6,30.15,NNW,338,1.1,3.1,36,0.00,,CLR,0.00,VWS V14.00,2013-04-24 00:09:00,
2013-04-23 17:10:00,64.0,36.6,30.15,WNW,292,0.9,3.1,36,0.00,,CLR,0.00,VWS V14.00,2013-04-24 00:10:00,
2013-04-23 17:11:00,64.0,37.3,30.15,WNW,292,0.0,3.1,37,0.00,,CLR,0.00,VWS V14.00,2013-04-24 00:11:00,
2013-04-23 17:12:00,64.0,37.3,30.15,NNW,338,1.6,3.1,37,0.00,,CLR,0.00,VWS V14.00,2013-04-24 00:12:00,
2013-04-23 17:14:00,64.0,37.3,30.12,NNW,338,1.3,2.2,37,0.00,,CLR,0.00,VWS V14.00,2013-04-24 00:14:00,
2013-04-23 17:15:00,64.0,37.3,30.12,NNW,338,2.0,2.0,37,0.00,,CLR,0.00,VWS V14.00,2013-04-24 00:15:00,
2013-04-23 17:16:00,63.9,37.1,30.12,West,270,1.6,2.0,37,0.00,,CLR,0.00,VWS V14.00,2013-04-24 00:16:00,
2013-04-23 17:17:00,63.9,37.1,30.12,WNW,292,2.0,2.0,37,0.00,,CLR,0.00,VWS V14.00,2013-04-24 00:17:00,
2013-04-23 17:19:00,63.9,37.1,30.12,NW,315,1.6,2.0,37,0.00,,CLR,0.00,VWS V14.00,2013-04-24 00:19:00,
2013-04-23 17:20:00,63.9,36.4,30.12,East,90,0.0,2.0,36,0.00,,CLR,0.00,VWS V14.00,2013-04-24 00:20:00,
2013-04-23 17:22:00,63.9,37.1,30.12,WNW,292,1.6,2.0,37,0.00,,CLR,0.00,VWS V14.00,2013-04-24 00:22:00,
2013-04-23 17:24:00,63.9,36.4,30.12,NW,315,1.1,2.0,36,0.00,,CLR,0.00,VWS V14.00,2013-04-24 00:24:00,
2013-04-23 17:25:00,64.0,37.3,30.12,WNW,292,0.0,2.0,37,0.00,,CLR,0.00,VWS V14.00,2013-04-24 00:25:00,
2013-04-23 17:27:00,63.9,37.1,30.12,NNW,338,0.0,2.0,37,0.00,,CLR,0.00,VWS V14.00,2013-04-24 00:27:00,
2013-04-23 17:29:00,63.9,36.4,30.12,NW,315,1.3,2.0,36,0.00,,CLR,0.00,VWS V14.00,2013-04-24 00:29:00,
2013-04-23 17:31:00,63.9,36.4,30.12,WNW,292,0.0,2.0,36,0.00,,CLR,0.00,VWS V14.00,2013-04-24 00:31:00,
2013-04-23 17:32:00,63.9,36.4,30.12,WNW,292,1.6,2.0,36,0.00,,CLR,0.00,VWS V14.00,2013-04-24 00:32:00,
2013-04-23 17:34:00,64.0,36.6,30.12,WNW,292,1.1,2.0,36,0.00,,CLR,0.00,VWS V14.00,2013-04-24 00:34:00,
2013-04-23 17:35:00,64.0,36.6,30.12,WNW,292,1.1,2.0,36,0.00,,CLR,0.00,VWS V14.00,2013-04-24 00:35:00,
2013-04-23 17:36:00,64.0,36.6,30.12,WNW,292,0.0,2.0,36,0.00,,CLR,0.00,VWS V14.00,2013-04-24 00:36:00,
2013-04-23 17:37:00,64.0,36.6,30.12,West,270,0.0,2.0,36,0.00,,CLR,0.00,VWS V14.00,2013-04-24 00:37:00,
2013-04-23 17:40:00,63.9,36.4,30.12,NNW,338,1.6,2.0,36,0.00,,CLR,0.00,VWS V14.00,2013-04-24 00:40:00,
2013-04-23 17:41:00,63.9,36.4,30.12,WNW,292,0.0,2.0,36,0.00,,CLR,0.00,VWS V14.00,2013-04-24 00:41:00,
2013-04-23 17:42:00,63.9,36.4,30.12,WNW,292,2.5,2.5,36,0.00,,CLR,0.00,VWS V14.00,2013-04-24 00:42:00,
2013-04-23 17:45:00,63.7,36.2,30.12,NNW,338,0.0,2.5,36,0.00,,CLR,0.00,VWS V14.00,2013-04-24 00:45:00,
2013-04-23 17:46:00,63.7,36.2,30.12,West,270,2.5,2.5,36,0.00,,CLR,0.00,VWS V14.00,2013-04-24 00:46:00,
2013-04-23 17:47:00,63.7,36.2,30.12,West,270,2.5,2.5,36,0.00,,CLR,0.00,VWS V14.00,2013-04-24 00:47:00,
2013-04-23 17:50:00,63.7,36.2,30.12,NNE,22,0.0,2.5,36,0.00,,CLR,0.00,VWS V14.00,2013-04-24 00:50:00,
2013-04-23 17:51:00,63.7,36.2,30.12,NNW,338,0.0,2.5,36,0.00,,CLR,0.00,VWS V14.00,2013-04-24 00:51:00,
2013-04-23 17:52:00,63.7,36.2,30.12,SSW,202,1.3,2.5,36,0.00,,CLR,0.00,VWS V14.00,2013-04-24 00:52:00,
2013-04-23 17:55:00,63.5,36.1,30.12,North,0,0.0,2.5,36,0.00,,CLR,0.00,VWS V14.00,2013-04-24 00:55:00,
2013-04-23 17:56:00,63.5,36.1,30.12,North,0,2.5,2.5,36,0.00,,CLR,0.00,VWS V14.00,2013-04-24 00:56:00,
2013-04-23 17:57:00,63.5,36.1,30.12,NW,315,0.9,2.5,36,0.00,,CLR,0.00,VWS V14.00,2013-04-24 00:57:00,
2013-04-23 18:00:00,63.5,36.1,30.12,NNW,338,0.0,2.5,36,0.00,,CLR,0.00,VWS V14.00,2013-04-24 01:00:00,
2013-04-23 18:01:00,63.5,36.1,30.12,NNW,338,0.0,2.5,36,0.00,,CLR,0.00,VWS V14.00,2013-04-24 01:01:00,
2013-04-23 18:02:00,63.3,35.9,30.12,NNE,22,0.0,1.3,36,0.00,,CLR,0.00,VWS V14.00,2013-04-24 01:02:00,
2013-04-23 18:05:00,63.3,35.9,30.12,WNW,292,1.1,1.1,36,0.00,,CLR,0.00,VWS V14.00,2013-04-24 01:05:00,
2013-04-23 18:06:00,63.3,35.9,30.12,NNW,338,0.0,1.1,36,0.00,,CLR,0.00,VWS V14.00,2013-04-24 01:06:00,
2013-04-23 18:07:00,63.3,35.9,30.12,WNW,292,0.0,1.1,36,0.00,,CLR,0.00,VWS V14.00,2013-04-24 01:07:00,
2013-04-23 18:10:00,63.3,36.6,30.12,North,0,0.0,1.1,37,0.00,,CLR,0.00,VWS V14.00,2013-04-24 01:10:00,
2013-04-23 18:11:00,63.1,35.8,30.12,NNW,338,0.0,1.1,36,0.00,,CLR,0.00,VWS V14.00,2013-04-24 01:11:00,
2013-04-23 18:12:00,63.1,35.8,30.12,NNW,338,1.1,1.1,36,0.00,,CLR,0.00,VWS V14.00,2013-04-24 01:12:00,
2013-04-23 18:15:00,63.1,36.5,30.12,WNW,292,2.0,2.0,37,0.00,,CLR,0.00,VWS V14.00,2013-04-24 01:15:00,
2013-04-23 18:16:00,63.1,35.8,30.12,WNW,292,0.9,2.0,36,0.00,,CLR,0.00,VWS V14.00,2013-04-24 01:16:00,
2013-04-23 18:17:00,63.1,35.8,30.12,NE,45,2.5,2.5,36,0.00,,CLR,0.00,VWS V14.00,2013-04-24 01:17:00,
2013-04-23 18:20:00,63.1,36.5,30.12,ENE,68,0.0,2.5,37,0.00,,CLR,0.00,VWS V14.00,2013-04-24 01:20:00,
2013-04-23 18:21:00,63.1,36.5,30.12,ENE,68,0.0,2.5,37,0.00,,CLR,0.00,VWS V14.00,2013-04-24 01:21:00,
2013-04-23 18:22:00,63.1,36.5,30.12,NNW,338,0.0,2.5,37,0.00,,CLR,0.00,VWS V14.00,2013-04-24 01:22:00,
2013-04-23 18:25:00,63.0,35.6,30.12,WNW,292,0.0,2.5,36,0.00,,CLR,0.00,VWS V14.00,2013-04-24 01:25:00,
2013-04-23 18:26:00,63.0,35.6,30.12,NNW,338,0.0,2.5,36,0.00,,CLR,0.00,VWS V14.00,2013-04-24 01:26:00,
2013-04-23 18:27:00,63.0,35.6,30.12,SSW,202,0.0,2.5,36,0.00,,CLR,0.00,VWS V14.00,2013-04-24 01:27:00,
2013-04-23 18:28:00,63.0,35.6,30.12,SSW,202,0.0,2.5,36,0.00,,CLR,0.00,VWS V14.00,2013-04-24 01:28:00,
2013-04-23 18:30:00,63.0,35.6,30.12,NE,45,0.0,2.5,36,0.00,,CLR,0.00,VWS V14.00,2013-04-24 01:30:00,
2013-04-23 18:31:00,63.0,35.6,30.12,NE,45,0.0,2.5,36,0.00,,CLR,0.00,VWS V14.00,2013-04-24 01:31:00,
2013-04-23 18:32:00,62.8,36.2,30.12,WNW,292,0.0,2.5,37,0.00,,CLR,0.00,VWS V14.00,2013-04-24 01:32:00,
2013-04-23 18:33:00,62.8,36.2,30.12,WNW,292,0.0,2.5,37,0.00,,CLR,0.00,VWS V14.00,2013-04-24 01:33:00,
2013-04-23 18:35:00,62.6,36.0,30.12,WNW,292,0.9,1.6,37,0.00,,CLR,0.00,VWS V14.00,2013-04-24 01:35:00,
2013-04-23 18:36:00,62.6,36.0,30.12,NNW,338,2.0,2.0,37,0.00,,CLR,0.00,VWS V14.00,2013-04-24 01:36:00,
2013-04-23 18:37:00,62.6,36.0,30.12,North,0,0.0,2.0,37,0.00,,CLR,0.00,VWS V14.00,2013-04-24 01:37:00,
2013-04-23 18:38:00,62.6,36.0,30.12,North,0,0.0,2.0,37,0.00,,CLR,0.00,VWS V14.00,2013-04-24 01:38:00,
2013-04-23 18:40:00,62.6,36.0,30.12,NNW,338,0.0,2.0,37,0.00,,CLR,0.00,VWS V14.00,2013-04-24 01:40:00,
2013-04-23 18:41:00,62.6,36.0,30.12,NNW,338,0.0,2.0,37,0.00,,CLR,0.00,VWS V14.00,2013-04-24 01:41:00,
2013-04-23 18:42:00,62.6,36.0,30.12,NNW,338,0.0,2.0,37,0.00,,CLR,0.00,VWS V14.00,2013-04-24 01:42:00,
2013-04-23 18:43:00,62.6,36.0,30.12,NNW,338,0.0,2.0,37,0.00,,CLR,0.00,VWS V14.00,2013-04-24 01:43:00,
2013-04-23 18:45:00,62.4,35.8,30.12,WNW,292,0.0,2.0,37,0.00,,CLR,0.00,VWS V14.00,2013-04-24 01:45:00,
2013-04-23 18:46:00,62.4,35.8,30.12,WNW,292,0.0,2.0,37,0.00,,CLR,0.00,VWS V14.00,2013-04-24 01:46:00,
2013-04-23 18:47:00,62.4,35.8,30.12,WNW,292,0.0,2.0,37,0.00,,CLR,0.00,VWS V14.00,2013-04-24 01:47:00,
2013-04-23 18:48:00,62.2,35.7,30.12,NNW,338,0.0,2.0,37,0.00,,CLR,0.00,VWS V14.00,2013-04-24 01:48:00,
2013-04-23 18:50:00,62.2,35.7,30.12,NNW,338,0.0,2.0,37,0.00,,CLR,0.00,VWS V14.00,2013-04-24 01:50:00,
2013-04-23 18:51:00,62.2,36.3,30.12,East,90,0.0,2.0,38,0.00,,CLR,0.00,VWS V14.00,2013-04-24 01:51:00,
2013-04-23 18:53:00,62.2,36.3,30.12,North,0,0.0,2.0,38,0.00,,CLR,0.00,VWS V14.00,2013-04-24 01:53:00,
2013-04-23 18:55:00,62.1,35.5,30.12,NNW,338,0.0,1.1,37,0.00,,CLR,0.00,VWS V14.00,2013-04-24 01:55:00,
2013-04-23 18:56:00,62.1,35.5,30.12,NE,45,0.0,1.1,37,0.00,,CLR,0.00,VWS V14.00,2013-04-24 01:56:00,
2013-04-23 18:58:00,61.9,36.0,30.12,NE,45,0.0,1.1,38,0.00,,CLR,0.00,VWS V14.00,2013-04-24 01:58:00,
2013-04-23 19:00:00,61.9,36.0,30.12,WNW,292,2.7,2.7,38,0.00,,CLR,0.00,VWS V14.00,2013-04-24 02:00:00,
2013-04-23 19:01:00,61.9,36.0,30.12,WNW,292,2.7,2.7,38,0.00,,CLR,0.00,VWS V14.00,2013-04-24 02:01:00,
2013-04-23 19:03:00,61.9,36.0,30.12,NW,315,0.0,2.7,38,0.00,,CLR,0.00,VWS V14.00,2013-04-24 02:03:00,
2013-04-23 19:05:00,61.7,35.9,30.12,WNW,292,0.0,2.7,38,0.00,,CLR,0.00,VWS V14.00,2013-04-24 02:05:00,
2013-04-23 19:06:00,61.7,35.9,30.12,ENE,68,0.0,2.7,38,0.00,,CLR,0.00,VWS V14.00,2013-04-24 02:06:00,
2013-04-23 19:08:00,61.5,35.7,30.12,NNW,338,0.0,2.7,38,0.00,,CLR,0.00,VWS V14.00,2013-04-24 02:08:00,
2013-04-23 19:11:00,61.3,35.5,30.12,West,270,0.0,2.7,38,0.00,,CLR,0.00,VWS V14.00,2013-04-24 02:11:00,
2013-04-23 19:12:00,61.3,35.5,30.12,West,270,0.0,2.7,38,0.00,,CLR,0.00,VWS V14.00,2013-04-24 02:12:00,
2013-04-23 19:13:00,61.3,35.5,30.12,NE,45,0.0,2.7,38,0.00,,CLR,0.00,VWS V14.00,2013-04-24 02:13:00,
2013-04-23 19:17:00,61.2,35.4,30.12,WNW,292,0.0,2.5,38,0.00,,CLR,0.00,VWS V14.00,2013-04-24 02:17:00,
2013-04-23 19:18:00,61.2,35.4,30.12,SW,225,0.0,2.5,38,0.00,,CLR,0.00,VWS V14.00,2013-04-24 02:18:00,
2013-04-23 19:20:00,61.0,35.2,30.12,NNE,22,0.0,2.5,38,0.00,,CLR,0.00,VWS V14.00,2013-04-24 02:20:00,
2013-04-23 19:22:00,61.0,35.2,30.12,West,270,0.0,2.0,38,0.00,,CLR,0.00,VWS V14.00,2013-04-24 02:22:00,
2013-04-23 19:23:00,61.0,35.2,30.12,West,270,0.0,2.0,38,0.00,,CLR,0.00,VWS V14.00,2013-04-24 02:23:00,
2013-04-23 19:25:00,61.0,35.2,30.12,WNW,292,0.0,2.0,38,0.00,,CLR,0.00,VWS V14.00,2013-04-24 02:25:00,
2013-04-23 19:27:00,61.0,35.2,30.12,NW,315,1.6,2.9,38,0.00,,CLR,0.00,VWS V14.00,2013-04-24 02:27:00,
2013-04-23 19:28:00,61.0,35.2,30.12,NE,45,0.0,2.9,38,0.00,,CLR,0.00,VWS V14.00,2013-04-24 02:28:00,
2013-04-23 19:29:00,60.8,35.1,30.12,NE,45,0.0,2.9,38,0.00,,CLR,0.00,VWS V14.00,2013-04-24 02:29:00,
2013-04-23 19:30:00,60.8,35.1,30.12,ENE,68,0.0,2.9,38,0.00,,CLR,0.00,VWS V14.00,2013-04-24 02:30:00,
2013-04-23 19:33:00,60.6,34.9,30.12,NNW,338,1.3,2.9,38,0.00,,CLR,0.00,VWS V14.00,2013-04-24 02:33:00,
2013-04-23 19:34:00,60.6,34.9,30.12,NNW,338,1.3,2.9,38,0.00,,CLR,0.00,VWS V14.00,2013-04-24 02:34:00,
2013-04-23 19:35:00,60.6,34.9,30.12,East,90,0.0,2.9,38,0.00,,CLR,0.00,VWS V14.00,2013-04-24 02:35:00,
2013-04-23 19:38:00,60.4,34.7,30.12,NW,315,0.0,2.9,38,0.00,,CLR,0.00,VWS V14.00,2013-04-24 02:38:00,
2013-04-23 19:39:00,60.4,34.7,30.12,NW,315,0.0,2.9,38,0.00,,CLR,0.00,VWS V14.00,2013-04-24 02:39:00,
2013-04-23 19:40:00,60.4,34.7,30.12,NNW,338,0.0,2.9,38,0.00,,CLR,0.00,VWS V14.00,2013-04-24 02:40:00,
2013-04-23 19:43:00,60.3,34.6,30.12,NW,315,0.0,2.9,38,0.00,,CLR,0.00,VWS V14.00,2013-04-24 02:43:00,
2013-04-23 19:44:00,60.3,34.6,30.15,East,90,0.0,1.6,38,0.00,,CLR,0.00,VWS V14.00,2013-04-24 02:44:00,
2013-04-23 19:45:00,60.1,34.4,30.15,ENE,68,0.9,1.3,38,0.00,,CLR,0.00,VWS V14.00,2013-04-24 02:45:00,
2013-04-23 19:48:00,59.9,34.2,30.15,NNE,22,0.0,1.3,38,0.00,,CLR,0.00,VWS V14.00,2013-04-24 02:48:00,
2013-04-23 19:49:00,59.9,34.2,30.15,NNE,22,0.0,1.3,38,0.00,,CLR,0.00,VWS V14.00,2013-04-24 02:49:00,
2013-04-23 19:50:00,59.7,34.1,30.15,East,90,0.0,1.3,38,0.00,,CLR,0.00,VWS V14.00,2013-04-24 02:50:00,
2013-04-23 19:51:00,59.7,34.1,30.15,East,90,0.0,1.3,38,0.00,,CLR,0.00,VWS V14.00,2013-04-24 02:51:00,
2013-04-23 19:53:00,59.7,34.1,30.15,NE,45,0.0,1.1,38,0.00,,CLR,0.00,VWS V14.00,2013-04-24 02:53:00,
2013-04-23 19:55:00,59.7,34.1,30.15,NNW,338,0.0,1.1,38,0.00,,CLR,0.00,VWS V14.00,2013-04-24 02:55:00,
2013-04-23 19:56:00,59.5,33.9,30.15,North,0,0.0,1.1,38,0.00,,CLR,0.00,VWS V14.00,2013-04-24 02:56:00,
2013-04-23 19:58:00,59.4,33.8,30.15,West,270,1.6,1.6,38,0.00,,CLR,0.00,VWS V14.00,2013-04-24 02:58:00,
2013-04-23 20:00:00,59.2,33.6,30.15,East,90,0.0,1.6,38,0.00,,CLR,0.00,VWS V14.00,2013-04-24 03:00:00,
2013-04-23 20:02:00,59.2,33.6,30.15,ENE,68,2.5,2.5,38,0.00,,CLR,0.00,VWS V14.00,2013-04-24 03:02:00,
2013-04-23 20:04:00,59.2,33.6,30.15,ESE,112,0.0,2.5,38,0.00,,CLR,0.00,VWS V14.00,2013-04-24 03:04:00,
2013-04-23 20:05:00,59.2,33.6,30.15,WNW,292,0.0,2.7,38,0.00,,CLR,0.00,VWS V14.00,2013-04-24 03:05:00,
2013-04-23 20:06:00,59.2,33.6,30.15,WNW,292,0.0,2.7,38,0.00,,CLR,0.00,VWS V14.00,2013-04-24 03:06:00,
2013-04-23 20:07:00,59.0,33.5,30.15,West,270,0.0,2.7,38,0.00,,CLR,0.00,VWS V14.00,2013-04-24 03:07:00,
2013-04-23 20:09:00,59.0,33.5,30.15,WNW,292,0.0,2.7,38,0.00,,CLR,0.00,VWS V14.00,2013-04-24 03:09:00,
2013-04-23 20:10:00,58.8,33.9,30.15,WNW,292,0.0,2.7,39,0.00,,CLR,0.00,VWS V14.00,2013-04-24 03:10:00,
2013-04-23 20:11:00,58.6,33.8,30.15,WSW,248,0.0,2.7,39,0.00,,CLR,0.00,VWS V14.00,2013-04-24 03:11:00,
2013-04-23 20:12:00,58.6,33.8,30.15,ENE,68,0.0,2.7,39,0.00,,CLR,0.00,VWS V14.00,2013-04-24 03:12:00,
2013-04-23 20:14:00,58.5,33.6,30.15,WNW,292,0.0,2.7,39,0.00,,CLR,0.00,VWS V14.00,2013-04-24 03:14:00,
2013-04-23 20:15:00,58.5,33.6,30.15,NNW,338,1.6,2.7,39,0.00,,CLR,0.00,VWS V14.00,2013-04-24 03:15:00,
2013-04-23 20:16:00,58.5,33.6,30.15,NNW,338,1.6,2.7,39,0.00,,CLR,0.00,VWS V14.00,2013-04-24 03:16:00,
2013-04-23 20:17:00,58.5,33.6,30.15,West,270,0.9,2.7,39,0.00,,CLR,0.00,VWS V14.00,2013-04-24 03:17:00,
2013-04-23 20:19:00,58.5,33.6,30.15,WSW,248,1.1,2.7,39,0.00,,CLR,0.00,VWS V14.00,2013-04-24 03:19:00,
2013-04-23 20:21:00,58.3,33.5,30.15,WSW,248,1.3,2.7,39,0.00,,CLR,0.00,VWS V14.00,2013-04-24 03:21:00,
2013-04-23 20:22:00,58.3,33.5,30.15,WSW,248,1.3,2.5,39,0.00,,CLR,0.00,VWS V14.00,2013-04-24 03:22:00,
2013-04-23 20:23:00,58.3,33.5,30.15,WSW,248,1.3,2.5,39,0.00,,CLR,0.00,VWS V14.00,2013-04-24 03:23:00,
2013-04-23 20:24:00,58.1,33.3,30.15,WNW,292,1.1,2.5,39,0.00,,CLR,0.00,VWS V14.00,2013-04-24 03:24:00,
2013-04-23 20:26:00,58.1,33.3,30.15,WNW,292,1.1,2.5,39,0.00,,CLR,0.00,VWS V14.00,2013-04-24 03:26:00,
2013-04-23 20:28:00,58.1,33.3,30.15,West,270,1.6,2.5,39,0.00,,CLR,0.00,VWS V14.00,2013-04-24 03:28:00,
2013-04-23 20:29:00,57.9,33.1,30.15,South,180,0.0,2.5,39,0.00,,CLR,0.00,VWS V14.00,2013-04-24 03:29:00,
2013-04-23 20:31:00,57.9,33.1,30.15,SSW,202,0.9,2.5,39,0.00,,CLR,0.00,VWS V14.00,2013-04-24 03:31:00,
2013-04-23 20:33:00,57.7,33.0,30.15,WNW,292,0.9,1.6,39,0.00,,CLR,0.00,VWS V14.00,2013-04-24 03:33:00,
2013-04-23 20:34:00,57.6,32.8,30.15,SW,225,1.1,1.6,39,0.00,,CLR,0.00,VWS V14.00,2013-04-24 03:34:00,
2013-04-23 20:36:00,57.6,32.8,30.15,ESE,112,0.9,1.6,39,0.00,,CLR,0.00,VWS V14.00,2013-04-24 03:36:00,
2013-04-23 20:39:00,57.4,32.7,30.15,SSE,158,0.9,1.6,39,0.00,,CLR,0.00,VWS V14.00,2013-04-24 03:39:00,
2013-04-23 20:42:00,57.4,32.7,30.15,WSW,248,0.0,1.6,39,0.00,,CLR,0.00,VWS V14.00,2013-04-24 03:42:00,
2013-04-23 20:44:00,57.0,33.0,30.15,ESE,112,0.0,1.6,40,0.00,,CLR,0.00,VWS V14.00,2013-04-24 03:44:00,
2013-04-23 20:45:00,57.0,33.0,30.18,SW,225,0.0,1.6,40,0.00,,CLR,0.00,VWS V14.00,2013-04-24 03:45:00,
2013-04-23 20:47:00,56.8,32.8,30.18,SW,225,0.0,1.6,40,0.00,,CLR,0.00,VWS V14.00,2013-04-24 03:47:00,
2013-04-23 20:49:00,56.8,32.8,30.18,SSW,202,1.1,1.6,40,0.00,,CLR,0.00,VWS V14.00,2013-04-24 03:49:00,
2013-04-23 20:50:00,56.7,32.6,30.18,SSW,202,1.1,1.6,40,0.00,,CLR,0.00,VWS V14.00,2013-04-24 03:50:00,
2013-04-23 20:51:00,56.7,32.6,30.18,SSW,202,1.1,1.6,40,0.00,,CLR,0.00,VWS V14.00,2013-04-24 03:51:00,
2013-04-23 20:52:00,56.7,32.6,30.18,SE,135,0.0,1.6,40,0.00,,CLR,0.00,VWS V14.00,2013-04-24 03:52:00,
2013-04-23 20:55:00,56.5,32.5,30.18,West,270,0.0,1.6,40,0.00,,CLR,0.00,VWS V14.00,2013-04-24 03:55:00,
2013-04-23 20:56:00,56.5,32.5,30.18,WNW,292,0.0,1.6,40,0.00,,CLR,0.00,VWS V14.00,2013-04-24 03:56:00,
2013-04-23 20:57:00,56.5,32.5,30.18,East,90,0.0,1.6,40,0.00,,CLR,0.00,VWS V14.00,2013-04-24 03:57:00,
2013-04-23 21:00:00,56.3,32.3,30.18,SSW,202,0.0,1.1,40,0.00,,CLR,0.00,VWS V14.00,2013-04-24 04:00:00,
2013-04-23 21:01:00,56.3,32.3,30.18,East,90,0.9,1.1,40,0.00,,CLR,0.00,VWS V14.00,2013-04-24 04:01:00,
2013-04-23 21:06:00,56.1,32.2,30.18,SSW,202,0.9,1.1,40,0.00,,CLR,0.00,VWS V14.00,2013-04-24 04:06:00,
2013-04-23 21:11:00,55.9,32.0,30.18,SSW,202,0.0,2.5,40,0.00,,CLR,0.00,VWS V14.00,2013-04-24 04:11:00,
2013-04-23 21:16:00,55.6,31.7,30.18,WSW,248,0.0,2.5,40,0.00,,CLR,0.00,VWS V14.00,2013-04-24 04:16:00,
2013-04-23 21:21:00,55.4,31.5,30.18,SE,135,0.0,2.5,40,0.00,,CLR,0.00,VWS V14.00,2013-04-24 04:21:00,
2013-04-23 21:26:00,55.4,31.5,30.18,ESE,112,0.0,2.5,40,0.00,,CLR,0.00,VWS V14.00,2013-04-24 04:26:00,
2013-04-23 21:31:00,54.9,31.0,30.21,East,90,0.0,2.0,40,0.00,,CLR,0.00,VWS V14.00,2013-04-24 04:31:00,
2013-04-23 21:36:00,54.7,31.5,30.21,ESE,112,0.0,2.0,41,0.00,,CLR,0.00,VWS V14.00,2013-04-24 04:36:00,
2013-04-23 21:37:00,54.7,31.5,30.21,NE,45,0.0,2.0,41,0.00,,CLR,0.00,VWS V14.00,2013-04-24 04:37:00,
2013-04-23 21:41:00,54.5,31.3,30.21,SSE,158,0.0,2.0,41,0.00,,CLR,0.00,VWS V14.00,2013-04-24 04:41:00,
2013-04-23 21:42:00,54.5,31.3,30.21,ENE,68,0.0,2.0,41,0.00,,CLR,0.00,VWS V14.00,2013-04-24 04:42:00,
2013-04-23 21:46:00,54.3,31.1,30.21,WSW,248,0.0,1.3,41,0.00,,CLR,0.00,VWS V14.00,2013-04-24 04:46:00,
2013-04-23 21:47:00,54.3,31.1,30.21,ENE,68,0.0,1.3,41,0.00,,CLR,0.00,VWS V14.00,2013-04-24 04:47:00,
2013-04-23 21:51:00,54.3,31.1,30.21,East,90,0.0,1.1,41,0.00,,CLR,0.00,VWS V14.00,2013-04-24 04:51:00,
2013-04-23 21:52:00,54.1,31.0,30.21,SE,135,0.9,1.1,41,0.00,,CLR,0.00,VWS V14.00,2013-04-24 04:52:00,
2013-04-23 21:56:00,54.0,30.8,30.21,SW,225,0.0,1.1,41,0.00,,CLR,0.00,VWS V14.00,2013-04-24 04:56:00,
2013-04-23 21:57:00,54.0,30.8,30.21,SW,225,0.0,1.1,41,0.00,,CLR,0.00,VWS V14.00,2013-04-24 04:57:00,
2013-04-23 22:01:00,53.8,30.0,30.21,WNW,292,0.0,1.1,40,0.00,,CLR,0.00,VWS V14.00,2013-04-24 05:01:00,
2013-04-23 22:02:00,53.8,30.0,30.21,WNW,292,0.0,1.1,40,0.00,,CLR,0.00,VWS V14.00,2013-04-24 05:02:00,
2013-04-23 22:06:00,53.8,30.0,30.21,WNW,292,0.0,1.3,40,0.00,,CLR,0.00,VWS V14.00,2013-04-24 05:06:00,
2013-04-23 22:07:00,53.8,30.0,30.21,SSE,158,0.9,1.3,40,0.00,,CLR,0.00,VWS V14.00,2013-04-24 05:07:00,
2013-04-23 22:11:00,53.6,29.9,30.21,SSW,202,0.0,1.3,40,0.00,,CLR,0.00,VWS V14.00,2013-04-24 05:11:00,
2013-04-23 22:12:00,53.6,29.9,30.21,ESE,112,0.0,1.3,40,0.00,,CLR,0.00,VWS V14.00,2013-04-24 05:12:00,
2013-04-23 22:13:00,53.6,29.9,30.21,ENE,68,0.0,0.9,40,0.00,,CLR,0.00,VWS V14.00,2013-04-24 05:13:00,
2013-04-23 22:16:00,53.2,29.6,30.21,WNW,292,0.0,0.0,40,0.00,,CLR,0.00,VWS V14.00,2013-04-24 05:16:00,
2013-04-23 22:17:00,53.2,30.2,30.21,WNW,292,0.0,0.0,41,0.00,,CLR,0.00,VWS V14.00,2013-04-24 05:17:00,
2013-04-23 22:18:00,53.2,30.2,30.21,WNW,292,0.0,0.0,41,0.00,,CLR,0.00,VWS V14.00,2013-04-24 05:18:00,
2013-04-23 22:21:00,53.1,30.0,30.21,ENE,68,0.0,0.0,41,0.00,,CLR,0.00,VWS V14.00,2013-04-24 05:21:00,
2013-04-23 22:22:00,53.1,30.0,30.21,SW,225,1.3,1.3,41,0.00,,CLR,0.00,VWS V14.00,2013-04-24 05:22:00,
2013-04-23 22:26:00,53.1,29.4,30.21,WSW,248,0.0,1.3,40,0.00,,CLR,0.00,VWS V14.00,2013-04-24 05:26:00,
2013-04-23 22:27:00,53.1,29.4,30.21,WSW,248,0.0,1.3,40,0.00,,CLR,0.00,VWS V14.00,2013-04-24 05:27:00,
2013-04-23 22:31:00,53.1,29.4,30.21,ESE,112,2.2,2.2,40,0.00,,CLR,0.00,VWS V14.00,2013-04-24 05:31:00,
2013-04-23 22:32:00,53.1,29.4,30.21,ESE,112,2.2,2.2,40,0.00,,CLR,0.00,VWS V14.00,2013-04-24 05:32:00,
2013-04-23 22:37:00,52.9,29.2,30.21,SSW,202,0.0,2.2,40,0.00,,CLR,0.00,VWS V14.00,2013-04-24 05:37:00,
2013-04-23 22:42:00,52.5,28.9,30.21,SSW,202,0.0,2.2,40,0.00,,CLR,0.00,VWS V14.00,2013-04-24 05:42:00,
2013-04-23 22:43:00,52.3,28.8,30.21,ESE,112,0.0,2.2,40,0.00,,CLR,0.00,VWS V14.00,2013-04-24 05:43:00,
2013-04-23 22:47:00,52.0,29.0,30.21,SE,135,0.0,2.2,41,0.00,,CLR,0.00,VWS V14.00,2013-04-24 05:47:00,
2013-04-23 22:48:00,52.0,29.0,30.21,SE,135,0.0,0.0,41,0.00,,CLR,0.00,VWS V14.00,2013-04-24 05:48:00,
2013-04-23 22:52:00,51.6,28.7,30.21,ESE,112,0.0,0.0,41,0.00,,CLR,0.00,VWS V14.00,2013-04-24 05:52:00,
2013-04-23 22:53:00,51.6,28.7,30.21,ESE,112,0.0,0.0,41,0.00,,CLR,0.00,VWS V14.00,2013-04-24 05:53:00,
2013-04-23 22:57:00,51.4,29.1,30.21,SE,135,0.0,0.0,42,0.00,,CLR,0.00,VWS V14.00,2013-04-24 05:57:00,
2013-04-23 22:58:00,51.3,29.0,30.21,SE,135,0.0,0.0,42,0.00,,CLR,0.00,VWS V14.00,2013-04-24 05:58:00,
2013-04-23 23:02:00,51.1,28.8,30.24,ESE,112,0.0,0.0,42,0.00,,CLR,0.00,VWS V14.00,2013-04-24 06:02:00,
2013-04-23 23:03:00,51.1,28.8,30.24,ESE,112,0.0,0.0,42,0.00,,CLR,0.00,VWS V14.00,2013-04-24 06:03:00,
2013-04-23 23:07:00,50.7,29.1,30.24,ESE,112,0.0,0.0,43,0.00,,CLR,0.00,VWS V14.00,2013-04-24 06:07:00,
2013-04-23 23:08:00,50.7,29.1,30.24,SE,135,0.0,0.0,43,0.00,,CLR,0.00,VWS V14.00,2013-04-24 06:08:00,
2013-04-23 23:12:00,50.5,28.9,30.24,ESE,112,0.0,0.0,43,0.00,,CLR,0.00,VWS V14.00,2013-04-24 06:12:00,
2013-04-23 23:13:00,50.5,28.9,30.24,East,90,0.0,0.0,43,0.00,,CLR,0.00,VWS V14.00,2013-04-24 06:13:00,
2013-04-23 23:17:00,50.5,28.9,30.24,East,90,2.0,2.9,43,0.00,,CLR,0.00,VWS V14.00,2013-04-24 06:17:00,
2013-04-23 23:18:00,50.5,28.9,30.24,SSW,202,3.1,3.1,43,0.00,,CLR,0.00,VWS V14.00,2013-04-24 06:18:00,
2013-04-23 23:22:00,50.5,28.3,30.24,East,90,2.5,3.1,42,0.00,,CLR,0.00,VWS V14.00,2013-04-24 06:22:00,
2013-04-23 23:23:00,50.5,28.3,30.24,East,90,2.5,3.1,42,0.00,,CLR,0.00,VWS V14.00,2013-04-24 06:23:00,
2013-04-23 23:27:00,50.5,28.3,30.24,ENE,68,1.6,3.6,42,0.00,,CLR,0.00,VWS V14.00,2013-04-24 06:27:00,
2013-04-23 23:28:00,50.5,28.3,30.24,East,90,2.2,3.6,42,0.00,,CLR,0.00,VWS V14.00,2013-04-24 06:28:00,
2013-04-23 23:32:00,50.5,28.3,30.24,East,90,1.1,3.6,42,0.00,,CLR,0.00,VWS V14.00,2013-04-24 06:32:00,
2013-04-23 23:33:00,50.5,28.3,30.24,East,90,1.1,3.6,42,0.00,,CLR,0.00,VWS V14.00,2013-04-24 06:33:00,
2013-04-23 23:37:00,50.5,28.3,30.24,ESE,112,0.0,3.6,42,0.00,,CLR,0.00,VWS V14.00,2013-04-24 06:37:00,
2013-04-23 23:38:00,50.4,28.2,30.24,ESE,112,0.0,3.6,42,0.00,,CLR,0.00,VWS V14.00,2013-04-24 06:38:00,
2013-04-23 23:42:00,50.4,28.2,30.24,WSW,248,0.0,2.9,42,0.00,,CLR,0.00,VWS V14.00,2013-04-24 06:42:00,
2013-04-23 23:43:00,50.4,28.2,30.24,WSW,248,0.0,2.9,42,0.00,,CLR,0.00,VWS V14.00,2013-04-24 06:43:00,
2013-04-23 23:47:00,50.4,28.2,30.24,WSW,248,0.0,2.9,42,0.00,,CLR,0.00,VWS V14.00,2013-04-24 06:47:00,
2013-04-23 23:48:00,50.4,28.2,30.24,WSW,248,0.0,2.9,42,0.00,,CLR,0.00,VWS V14.00,2013-04-24 06:48:00,
2013-04-23 23:52:00,50.0,27.8,30.24,ESE,112,0.0,2.9,42,0.00,,CLR,0.00,VWS V14.00,2013-04-24 06:52:00,
2013-04-23 23:53:00,50.0,27.8,30.24,SE,135,0.0,2.9,42,0.00,,CLR,0.00,VWS V14.00,2013-04-24 06:53:00,
2013-04-23 23:57:00,50.2,28.0,30.24,East,90,0.0,1.3,42,0.00,,CLR,0.00,VWS V14.00,2013-04-24 06:57:00,
2013-04-23 23:58:00,50.2,28.0,30.24,East,90,0.0,1.3,42,0.00,,CLR,0.00,VWS V14.00,2013-04-24 06:58:00,